N8MS Weather Reports


time (UTC)temp
C
wind
direction
speed
KPH
gust
KPH
rain 1hr
cm
rain 24hr
cm
rain mn
cm
humidity
%
barometer
mb
20260906110220 16 76 4.8 8.0 0.00 0.00 0.00 92 1018.8
20260906110143 16 76 4.8 8.0 0.00 0.00 0.00 92 1018.8
20260906110034 16 71 4.8 6.4 0.00 0.00 0.00 92 1018.9
20260906105925 16 76 1.6 6.4 0.00 0.00 0.00 92 1018.9
20260906105838 16 76 0.0 0.0 0.00 0.00 0.00 92 1018.9
20260906105730 16 76 0.0 0.0 0.00 0.00 0.00 92 1018.9
20260906105621 16 76 0.0 0.0 0.00 0.00 0.00 92 1018.9
20260906105533 16 76 0.0 0.0 0.00 0.00 0.00 92 1018.9
20260906105426 16 76 0.0 0.0 0.00 0.00 0.00 92 1019.0
20260906105337 16 76 0.0 0.0 0.00 0.00 0.00 92 1018.9
20260906105232 16 76 0.0 0.0 0.00 0.00 0.00 92 1018.9
20260906105124 16 76 0.0 0.0 0.00 0.00 0.00 92 1019.0
20260906105036 16 76 0.0 0.0 0.00 0.00 0.00 92 1018.9
20260906104929 16 76 0.0 0.0 0.00 0.00 0.00 92 1019.0
20260906104821 16 76 0.0 0.0 0.00 0.00 0.00 92 1019.0
20260906104732 16 76 0.0 0.0 0.00 0.00 0.00 92 1018.9
20260906104655 16 76 0.0 0.0 0.00 0.00 0.00 92 1018.9
20260906104548 17 76 0.0 4.8 0.00 0.00 0.00 92 1018.9
20260906104438 17 76 0.0 4.8 0.00 0.00 0.00 92 1018.9
20260906104332 17 76 0.0 4.8 0.00 0.00 0.00 92 1018.9
20260906104224 17 76 0.0 4.8 0.00 0.00 0.00 92 1019.0
20260906104137 17 76 0.0 4.8 0.00 0.00 0.00 92 1019.0
20260906104047 17 76 0.0 4.8 0.00 0.00 0.00 91 1018.9
20260906103919 17 76 0.0 4.8 0.00 0.00 0.00 91 1019.0
20260906103831 17 76 1.6 4.8 0.00 0.00 0.00 91 1018.9
20260906103743 17 76 3.2 4.8 0.00 0.00 0.00 91 1019.0
20260906103635 17 76 3.2 4.8 0.00 0.00 0.00 92 1019.0
20260906103547 17 76 3.2 4.8 0.00 0.00 0.00 92 1018.9
20260906103458 17 76 3.2 4.8 0.00 0.00 0.00 92 1018.9
20260906103332 17 76 3.2 4.8 0.00 0.00 0.00 91 1018.8
20260906103221 17 76 3.2 4.8 0.00 0.00 0.00 91 1018.9
20260906103141 17 76 3.2 4.8 0.00 0.00 0.00 91 1018.8
20260906103033 17 76 3.2 4.8 0.00 0.00 0.00 91 1018.8
20260906102925 17 76 3.2 9.7 0.00 0.00 0.00 91 1018.7
20260906102837 17 76 3.2 9.7 0.00 0.00 0.00 91 1018.7
20260906102729 17 76 3.2 9.7 0.00 0.00 0.00 91 1018.7
20260906102642 17 101 3.2 9.7 0.00 0.00 0.00 91 1018.7
20260906102533 17 101 3.2 9.7 0.00 0.00 0.00 92 1018.6
20260906102429 17 101 3.2 9.7 0.00 0.00 0.00 92 1018.7
20260906102342 17 101 4.8 9.7 0.00 0.00 0.00 92 1018.7
20260906102233 17 101 4.8 9.7 0.00 0.00 0.00 92 1018.5
20260906102126 17 106 3.2 8.0 0.00 0.00 0.00 91 1018.6
20260906102038 17 103 1.6 6.4 0.00 0.00 0.00 91 1018.6
20260906101930 17 78 1.6 6.4 0.00 0.00 0.00 91 1018.6
20260906101822 17 78 1.6 6.4 0.00 0.00 0.00 91 1018.7
20260906101735 17 78 3.2 6.4 0.00 0.00 0.00 91 1018.7
20260906101659 17 78 3.2 6.4 0.00 0.00 0.00 91 1018.7
20260906101533 17 78 3.2 6.4 0.00 0.00 0.00 91 1018.6
20260906101426 17 67 3.2 6.4 0.00 0.00 0.00 91 1018.7
20260906101339 17 87 3.2 6.4 0.00 0.00 0.00 91 1018.7
20260906101231 17 87 3.2 6.4 0.00 0.00 0.00 91 1018.6
20260906101144 17 87 3.2 6.4 0.00 0.00 0.00 91 1018.5
20260906101057 17 87 3.2 6.4 0.00 0.00 0.00 91 1018.5
20260906101009 17 87 1.6 6.4 0.00 0.00 0.00 91 1018.6
20260906100859 17 87 3.2 6.4 0.00 0.00 0.00 91 1018.6
20260906100731 17 87 3.2 6.4 0.00 0.00 0.00 91 1018.6
20260906100643 17 95 3.2 6.4 0.00 0.00 0.00 91 1018.6
20260906100536 17 95 3.2 6.4 0.00 0.00 0.00 91 1018.5
20260906100428 17 63 1.6 4.8 0.00 0.00 0.00 91 1018.5
20260906100321 17 63 1.6 4.8 0.00 0.00 0.00 91 1018.5
20260906100231 17 63 3.2 4.8 0.00 0.03 0.00 91 1018.5
20260906100153 17 63 3.2 4.8 0.00 0.03 0.00 91 1018.5
20260906100024 17 63 1.6 4.8 0.00 0.03 0.00 91 1018.5
20260906095935 17 63 1.6 4.8 0.00 0.03 0.00 90 1018.5
20260906095847 17 63 1.6 4.8 0.00 0.03 0.00 90 1018.4
20260906095738 17 63 1.6 4.8 0.00 0.03 0.00 90 1018.4
20260906095649 17 63 1.6 4.8 0.00 0.03 0.00 90 1018.4
20260906095525 17 63 1.6 4.8 0.00 0.03 0.00 90 1018.4
20260906095419 17 63 1.6 4.8 0.00 0.03 0.00 90 1018.4
20260906095330 17 63 1.6 4.8 0.00 0.03 0.00 90 1018.4
20260906095223 17 63 1.6 4.8 0.00 0.03 0.00 90 1018.4
20260906095134 17 63 1.6 4.8 0.00 0.03 0.00 90 1018.4
20260906095046 17 63 1.6 4.8 0.00 0.03 0.00 90 1018.4
20260906094959 17 63 3.2 4.8 0.00 0.03 0.00 90 1018.4
20260906094831 17 63 3.2 4.8 0.00 0.03 0.00 90 1018.4
20260906094734 17 63 3.2 4.8 0.00 0.03 0.00 90 1018.4
20260906094640 17 63 3.2 4.8 0.00 0.03 0.00 90 1018.4
20260906094532 17 63 3.2 4.8 0.00 0.03 0.00 90 1018.4
20260906094422 17 63 1.6 3.2 0.00 0.03 0.00 90 1018.4
20260906094335 17 63 1.6 3.2 0.00 0.03 0.00 90 1018.4
20260906094227 17 63 1.6 3.2 0.00 0.03 0.00 89 1018.4
20260906094119 17 63 1.6 4.8 0.00 0.03 0.00 89 1018.4
20260906094032 17 63 1.6 4.8 0.00 0.03 0.00 89 1018.3
20260906093943 17 63 1.6 4.8 0.00 0.03 0.00 89 1018.3
20260906093855 17 63 1.6 4.8 0.00 0.03 0.00 89 1018.4
20260906093730 17 63 1.6 4.8 0.00 0.03 0.00 89 1018.4
20260906093642 17 63 1.6 4.8 0.00 0.03 0.00 89 1018.3
20260906093534 17 63 1.6 4.8 0.00 0.03 0.00 89 1018.4
20260906093426 17 63 3.2 4.8 0.00 0.03 0.00 89 1018.4
20260906093337 17 63 3.2 4.8 0.00 0.03 0.00 89 1018.4
20260906093248 17 63 3.2 4.8 0.00 0.03 0.00 89 1018.4
20260906093211 17 63 3.2 4.8 0.00 0.03 0.00 89 1018.4
20260906093042 17 63 3.2 4.8 0.00 0.03 0.00 89 1018.3
20260906092954 17 63 3.2 4.8 0.00 0.03 0.00 89 1018.4
20260906092825 17 63 3.2 4.8 0.00 0.03 0.00 89 1018.4
20260906092721 17 63 3.2 4.8 0.00 0.03 0.00 89 1018.4
20260906092632 17 63 3.2 4.8 0.00 0.03 0.00 89 1018.3
20260906092525 17 63 3.2 4.8 0.00 0.03 0.00 88 1018.4
20260906092436 17 63 3.2 6.4 0.00 0.03 0.00 88 1018.4
20260906092328 17 63 3.2 6.4 0.00 0.03 0.00 88 1018.3
20260906092240 17 63 3.2 6.4 0.00 0.03 0.00 88 1018.3
20260906092152 17 63 3.2 6.4 0.00 0.03 0.00 88 1018.3
20260906092043 17 63 3.2 6.4 0.00 0.03 0.00 88 1018.3
20260906091934 17 63 3.2 6.4 0.00 0.03 0.00 88 1018.3
20260906091827 17 63 3.2 6.4 0.00 0.03 0.00 88 1018.3
20260906091724 17 63 4.8 6.4 0.00 0.03 0.00 88 1018.3
20260906091646 17 54 3.2 6.4 0.00 0.03 0.00 88 1018.3
20260906091538 17 45 3.2 6.4 0.00 0.03 0.00 88 1018.4
20260906091431 18 67 3.2 6.4 0.00 0.03 0.00 88 1018.3
20260906091344 18 67 3.2 6.4 0.00 0.03 0.00 88 1018.4
20260906091256 18 67 3.2 6.4 0.00 0.03 0.00 88 1018.4
20260906091127 18 69 3.2 6.4 0.00 0.03 0.00 88 1018.4
20260906091019 18 69 3.2 6.4 0.00 0.03 0.00 88 1018.3
20260906090930 18 71 3.2 6.4 0.00 0.03 0.00 88 1018.4
20260906090827 18 82 3.2 6.4 0.00 0.03 0.00 88 1018.3
20260906090719 18 82 1.6 6.4 0.00 0.03 0.00 88 1018.4
20260906090631 18 82 3.2 6.4 0.00 0.03 0.00 88 1018.4
20260906090524 18 82 4.8 6.4 0.00 0.03 0.00 88 1018.3
20260906090436 18 88 3.2 6.4 0.00 0.03 0.00 88 1018.3
20260906090328 18 65 1.6 6.4 0.00 0.03 0.00 88 1018.3
20260906090219 18 65 3.2 6.4 0.00 0.03 0.00 88 1018.3
20260906090140 18 65 3.2 6.4 0.00 0.03 0.00 88 1018.3
20260906090036 18 90 3.2 6.4 0.00 0.03 0.00 88 1018.3
20260906085947 18 73 1.6 6.4 0.00 0.03 0.00 88 1018.3
20260906085837 18 90 1.6 6.4 0.00 0.03 0.00 88 1018.3
20260906085750 18 42 3.2 6.4 0.00 0.03 0.00 88 1018.3
20260906085642 18 90 3.2 6.4 0.00 0.03 0.00 88 1018.3
20260906085555 18 96 3.2 6.4 0.00 0.03 0.00 88 1018.3
20260906085445 18 93 3.2 9.7 0.00 0.03 0.00 88 1018.3
20260906085337 18 93 4.8 9.7 0.00 0.03 0.00 88 1018.3
20260906085229 18 82 3.2 9.7 0.00 0.03 0.00 88 1018.3
20260906085122 18 90 1.6 9.7 0.00 0.03 0.00 88 1018.2
20260906085033 18 90 3.2 9.7 0.00 0.03 0.00 88 1018.3
20260906084948 18 90 4.8 9.7 0.00 0.03 0.00 88 1018.2
20260906084900 18 77 3.2 9.7 0.00 0.03 0.00 88 1018.2
20260906084752 18 102 4.8 9.7 0.00 0.03 0.00 88 1018.2
20260906084653 18 86 4.8 9.7 0.00 0.03 0.00 88 1018.2
20260906084524 18 66 3.2 9.7 0.00 0.03 0.00 88 1018.3
20260906084435 18 70 3.2 9.7 0.00 0.03 0.00 88 1018.3
20260906084347 18 111 3.2 9.7 0.00 0.03 0.00 88 1018.2
20260906084259 18 111 4.8 12.9 0.00 0.03 0.00 88 1018.2
20260906084210 18 74 3.2 12.9 0.00 0.03 0.00 88 1018.2
20260906084122 18 96 1.6 12.9 0.00 0.03 0.00 88 1018.2
20260906084013 18 76 3.2 12.9 0.00 0.03 0.00 88 1018.2
20260906083904 18 76 3.2 12.9 0.00 0.03 0.00 88 1018.2
20260906083738 18 100 1.6 12.9 0.00 0.03 0.00 88 1018.1
20260906083630 18 103 4.8 12.9 0.00 0.03 0.00 88 1018.1
20260906083522 18 103 6.4 12.9 0.00 0.03 0.00 88 1018.1
20260906083433 18 103 4.8 11.3 0.00 0.03 0.00 88 1018.1
20260906083232 18 85 4.8 12.9 0.00 0.03 0.00 88 1018.1
20260906083154 18 109 4.8 12.9 0.00 0.03 0.00 88 1018.1
20260906083025 18 102 4.8 12.9 0.00 0.03 0.00 88 1018.0
20260906082937 18 101 4.8 12.9 0.00 0.03 0.00 88 1018.1
20260906082829 18 94 8.0 12.9 0.00 0.03 0.00 88 1018.0
20260906082745 18 84 6.4 12.9 0.00 0.03 0.00 88 1018.0
20260906082657 18 105 6.4 12.9 0.00 0.03 0.00 89 1018.0
20260906082548 18 111 6.4 12.9 0.00 0.03 0.00 89 1018.0
20260906082438 18 115 6.4 12.9 0.00 0.03 0.00 89 1018.0
20260906082349 18 93 6.4 12.9 0.00 0.03 0.00 89 1018.0
20260906082221 18 96 6.4 12.9 0.00 0.03 0.00 89 1018.0
20260906082133 18 90 8.0 12.9 0.00 0.03 0.00 89 1018.0
20260906082045 18 93 8.0 12.9 0.00 0.03 0.00 89 1017.9
20260906081937 18 91 8.0 12.9 0.00 0.03 0.00 89 1017.9
20260906081829 18 111 6.4 12.9 0.00 0.03 0.00 89 1017.9
20260906081725 18 97 6.4 12.9 0.00 0.03 0.00 89 1018.0
20260906081647 18 76 6.4 12.9 0.00 0.03 0.00 89 1017.9
20260906081536 18 111 6.4 12.9 0.00 0.03 0.00 89 1017.9
20260906081427 18 124 6.4 11.3 0.00 0.03 0.00 89 1017.9
20260906081339 18 81 6.4 11.3 0.00 0.03 0.00 89 1018.0
20260906081229 18 115 6.4 11.3 0.00 0.03 0.00 89 1017.9
20260906081142 18 119 6.4 11.3 0.00 0.03 0.00 89 1017.9
20260906081034 18 121 6.4 11.3 0.00 0.03 0.00 89 1017.9
20260906080927 18 94 4.8 11.3 0.00 0.03 0.00 89 1017.9
20260906080822 18 98 4.8 11.3 0.00 0.03 0.00 89 1017.9
20260906080734 18 98 6.4 11.3 0.00 0.03 0.00 89 1017.9
20260906080646 18 131 8.0 11.3 0.00 0.03 0.00 89 1017.9
20260906080538 18 104 8.0 11.3 0.00 0.03 0.00 89 1017.9
20260906080449 18 93 6.4 11.3 0.00 0.03 0.00 89 1017.9
20260906080340 18 112 6.4 11.3 0.00 0.03 0.00 90 1017.9
20260906080230 18 101 6.4 9.7 0.00 0.03 0.00 90 1018.0
20260906080151 18 98 4.8 9.7 0.00 0.03 0.00 90 1018.0
20260906080022 18 103 6.4 9.7 0.00 0.03 0.00 89 1018.0
20260906075934 18 95 6.4 12.9 0.00 0.03 0.00 89 1018.0
20260906075846 18 105 4.8 12.9 0.00 0.03 0.00 89 1018.0
20260906075741 18 107 3.2 12.9 0.00 0.03 0.00 89 1018.0
20260906075632 18 66 4.8 12.9 0.00 0.03 0.00 89 1018.0
20260906075525 18 110 6.4 12.9 0.00 0.03 0.00 89 1018.0
20260906075436 18 112 6.4 12.9 0.00 0.03 0.00 89 1018.0
20260906075328 18 96 4.8 12.9 0.00 0.03 0.00 89 1018.0
20260906075220 18 115 6.4 12.9 0.00 0.03 0.00 89 1017.9
20260906075132 18 98 6.4 12.9 0.00 0.03 0.00 89 1017.9
20260906075025 18 88 4.8 11.3 0.00 0.03 0.00 89 1017.9
20260906074921 18 94 4.8 11.3 0.00 0.03 0.00 89 1017.9
20260906074833 18 94 3.2 11.3 0.00 0.03 0.00 89 1017.9
20260906074725 18 108 3.2 11.3 0.00 0.03 0.00 89 1017.9
20260906074646 18 108 4.8 11.3 0.00 0.03 0.00 89 1017.8
20260906074537 18 92 4.8 11.3 0.00 0.03 0.00 89 1017.8
20260906074429 18 103 6.4 11.3 0.00 0.03 0.00 89 1017.7
20260906074341 18 110 6.4 11.3 0.00 0.03 0.00 89 1017.8
20260906074233 18 116 6.4 11.3 0.00 0.03 0.00 89 1017.7
20260906074144 18 105 8.0 11.3 0.00 0.03 0.00 89 1017.8
20260906074057 18 101 6.4 11.3 0.00 0.03 0.00 89 1017.7
20260906073931 18 130 4.8 9.7 0.00 0.03 0.00 89 1017.8
20260906073824 18 119 4.8 11.3 0.00 0.03 0.00 89 1017.8
20260906073736 18 98 4.8 11.3 0.00 0.03 0.00 89 1017.8
20260906073627 18 101 3.2 11.3 0.00 0.03 0.00 89 1017.8
20260906073519 18 105 3.2 11.3 0.00 0.03 0.00 89 1017.8
20260906073431 18 105 3.2 11.3 0.00 0.03 0.00 89 1017.8
20260906073323 18 92 3.2 11.3 0.00 0.03 0.00 89 1017.7
20260906073234 18 94 4.8 11.3 0.00 0.03 0.00 89 1017.7
20260906073158 18 94 4.8 11.3 0.00 0.03 0.00 89 1017.7
20260906073053 18 93 6.4 11.3 0.00 0.03 0.00 89 1017.7
20260906072924 18 107 6.4 14.5 0.00 0.03 0.00 89 1017.7
20260906072836 18 95 6.4 14.5 0.00 0.03 0.00 88 1017.7
20260906072728 18 123 8.0 14.5 0.00 0.03 0.00 88 1017.7
20260906072621 18 95 6.4 14.5 0.00 0.03 0.00 88 1017.7
20260906072533 19 90 6.4 14.5 0.00 0.03 0.00 88 1017.7
20260906072425 19 110 6.4 14.5 0.00 0.03 0.00 88 1017.6
20260906072337 19 133 8.0 14.5 0.00 0.03 0.00 88 1017.7
20260906072232 19 96 9.7 14.5 0.00 0.03 0.00 88 1017.6
20260906072125 19 117 9.7 14.5 0.00 0.03 0.00 88 1017.7
20260906072037 19 118 8.0 12.9 0.00 0.03 0.00 88 1017.7
20260906071929 19 113 8.0 12.9 0.00 0.03 0.00 88 1017.7
20260906071842 19 123 8.0 12.9 0.00 0.03 0.00 88 1017.7
20260906071732 19 128 8.0 12.9 0.00 0.03 0.00 88 1017.7
20260906071655 19 116 6.4 12.9 0.00 0.03 0.00 88 1017.7
20260906071525 19 132 6.4 17.7 0.00 0.03 0.00 88 1017.8
20260906071437 19 124 6.4 17.7 0.00 0.03 0.00 88 1017.8
20260906071333 19 107 9.7 17.7 0.00 0.03 0.00 88 1017.7
20260906071225 19 106 8.0 17.7 0.00 0.03 0.00 88 1017.8
20260906071137 19 127 8.0 17.7 0.00 0.03 0.00 88 1017.8
20260906071028 19 101 6.4 17.7 0.00 0.03 0.00 88 1017.7
20260906070940 19 129 9.7 17.7 0.00 0.03 0.00 87 1017.8
20260906070831 19 119 12.9 17.7 0.00 0.03 0.00 87 1017.8
20260906070723 19 124 9.7 17.7 0.00 0.03 0.00 87 1017.8
20260906070635 19 115 8.0 16.1 0.00 0.03 0.00 87 1017.9
20260906070546 19 101 8.0 16.1 0.00 0.03 0.00 87 1017.8
20260906070422 19 105 9.7 16.1 0.00 0.03 0.00 87 1017.9
20260906070334 19 119 8.0 16.1 0.00 0.03 0.00 87 1017.9
20260906070245 19 111 8.0 16.1 0.00 0.13 0.00 87 1017.9
20260906070207 19 79 8.0 16.1 0.00 0.13 0.00 87 1017.9
20260906070037 19 113 9.7 16.1 0.00 0.13 0.00 88 1017.9
20260906065929 19 113 8.0 17.7 0.00 0.13 0.00 88 1018.0
20260906065840 19 113 9.7 17.7 0.00 0.13 0.00 88 1017.9
20260906065732 19 103 9.7 17.7 0.00 0.13 0.00 88 1017.9
20260906065623 19 109 9.7 17.7 0.00 0.13 0.00 88 1018.0
20260906065535 19 85 9.7 17.7 0.00 0.13 0.00 88 1017.9
20260906065431 19 113 11.3 17.7 0.00 0.13 0.00 88 1017.9
20260906065344 19 119 11.3 17.7 0.00 0.13 0.00 88 1017.9
20260906065255 19 96 12.9 17.7 0.00 0.13 0.00 88 1017.9
20260906065207 19 112 9.7 17.7 0.00 0.13 0.00 88 1017.9
20260906065119 19 93 9.7 17.7 0.00 0.13 0.00 88 1017.9
20260906065011 19 85 11.3 17.7 0.00 0.13 0.00 88 1017.9
20260906064901 19 84 11.3 16.1 0.00 0.13 0.00 88 1017.9
20260906064814 19 75 9.7 16.1 0.00 0.13 0.00 88 1017.9
20260906064716 19 123 8.0 19.3 0.00 0.13 0.00 88 1017.9
20260906064526 19 105 9.7 19.3 0.00 0.13 0.00 88 1018.0
20260906064419 19 113 11.3 19.3 0.00 0.13 0.00 88 1018.0
20260906064336 19 115 9.7 19.3 0.00 0.13 0.00 88 1018.0
20260906064247 19 120 8.0 19.3 0.00 0.13 0.00 89 1018.0
20260906064159 19 86 11.3 19.3 0.00 0.13 0.00 89 1018.0
20260906064049 19 121 12.9 19.3 0.00 0.13 0.00 89 1018.0
20260906063920 19 84 12.9 19.3 0.00 0.13 0.00 89 1018.1
20260906063831 19 116 11.3 17.7 0.00 0.13 0.00 89 1018.1
20260906063722 19 121 9.7 17.7 0.00 0.13 0.00 89 1018.0
20260906063634 19 107 11.3 17.7 0.00 0.13 0.00 89 1018.0
20260906063527 19 107 9.7 17.7 0.00 0.13 0.00 89 1018.0
20260906063422 19 89 6.4 14.5 0.00 0.13 0.00 89 1018.0
20260906063334 19 87 8.0 14.5 0.00 0.13 0.00 89 1018.0
20260906063244 19 109 8.0 16.1 0.00 0.13 0.00 89 1018.0
20260906063145 19 89 8.0 16.1 0.00 0.13 0.00 89 1018.0
20260906063037 19 112 8.0 16.1 0.00 0.13 0.00 89 1018.0
20260906062949 19 106 8.0 20.9 0.00 0.13 0.00 89 1018.0
20260906062902 19 76 6.4 20.9 0.00 0.13 0.00 89 1018.0
20260906062753 19 96 6.4 20.9 0.00 0.13 0.00 89 1018.0
20260906062643 20 103 8.0 20.9 0.00 0.13 0.00 90 1018.0
20260906062555 20 94 9.7 20.9 0.00 0.13 0.00 90 1017.9
20260906062426 20 103 11.3 20.9 0.00 0.13 0.00 90 1018.0
20260906062321 20 105 11.3 20.9 0.00 0.13 0.00 90 1017.9
20260906062234 20 106 11.3 20.9 0.00 0.13 0.00 90 1017.9
20260906062127 20 105 8.0 20.9 0.00 0.13 0.00 90 1017.9
20260906062020 20 109 6.4 12.9 0.00 0.13 0.00 90 1017.9
20260906061933 20 101 8.0 17.7 0.00 0.13 0.00 90 1017.9
20260906061844 20 103 8.0 17.7 0.00 0.13 0.00 90 1017.9
20260906061757 20 82 6.4 17.7 0.00 0.13 0.00 90 1017.9
20260906061658 20 112 6.4 17.7 0.00 0.13 0.00 90 1017.9
20260906061529 20 90 8.0 17.7 0.00 0.13 0.00 90 1017.9
20260906061441 20 113 8.0 19.3 0.00 0.13 0.00 90 1017.8
20260906061357 20 89 8.0 19.3 0.00 0.13 0.00 90 1017.8
20260906061228 20 109 9.7 19.3 0.00 0.13 0.00 90 1017.8
20260906061140 20 84 11.3 19.3 0.00 0.13 0.00 90 1017.8
20260906061032 20 107 9.7 19.3 0.00 0.13 0.00 90 1017.7
20260906060924 20 92 8.0 19.3 0.00 0.13 0.00 90 1017.7
20260906060836 20 78 9.7 19.3 0.00 0.13 0.00 90 1017.7
20260906060749 20 105 12.9 19.3 0.00 0.13 0.00 90 1017.7
20260906060621 20 103 12.9 19.3 0.00 0.13 0.00 91 1017.7
20260906060533 20 90 9.7 14.5 0.00 0.13 0.00 91 1017.7
20260906060445 20 101 8.0 14.5 0.00 0.13 0.00 91 1017.6
20260906060400 20 86 6.4 12.9 0.00 0.13 0.00 90 1017.7
20260906060249 20 67 6.4 12.9 0.00 0.15 0.00 90 1017.6
20260906060151 20 108 6.4 12.9 0.00 0.15 0.00 90 1017.6
20260906060022 20 112 8.0 12.9 0.00 0.15 0.00 90 1017.6
20260906055934 20 81 6.4 12.9 0.00 0.15 0.00 90 1017.6
20260906055826 20 84 6.4 14.5 0.00 0.15 0.00 90 1017.7
20260906055739 20 80 8.0 14.5 0.00 0.15 0.00 90 1017.7
20260906055629 20 118 8.0 14.5 0.00 0.15 0.00 90 1017.7
20260906055541 20 102 6.4 14.5 0.00 0.15 0.00 90 1017.8
20260906055452 20 115 4.8 14.5 0.00 0.15 0.00 90 1017.7
20260906055345 20 94 6.4 14.5 0.00 0.15 0.00 90 1017.8
20260906055237 20 95 6.4 14.5 0.00 0.15 0.00 90 1017.8
20260906055128 20 95 6.4 14.5 0.00 0.15 0.00 90 1017.8
20260906055021 20 85 6.4 14.5 0.00 0.15 0.00 90 1017.8
20260906054932 20 67 8.0 14.5 0.00 0.15 0.00 90 1017.8
20260906054824 20 94 8.0 14.5 0.00 0.15 0.00 90 1017.8
20260906054737 20 115 8.0 14.5 0.00 0.15 0.00 90 1017.8
20260906054659 20 91 6.4 14.5 0.00 0.15 0.00 90 1017.8
20260906054549 20 77 6.4 12.9 0.00 0.15 0.00 90 1017.7
20260906054425 20 87 6.4 12.9 0.00 0.15 0.00 90 1017.8
20260906054336 20 94 8.0 12.9 0.00 0.15 0.00 90 1017.7
20260906054229 20 84 8.0 14.5 0.00 0.15 0.00 91 1017.7
20260906054121 20 95 6.4 14.5 0.00 0.15 0.00 91 1017.6
20260906054033 20 81 4.8 14.5 0.00 0.15 0.00 91 1017.7
20260906053945 20 80 6.4 14.5 0.00 0.15 0.00 91 1017.5
20260906053836 20 81 6.4 14.5 0.00 0.15 0.00 91 1017.6
20260906053747 20 89 4.8 14.5 0.00 0.15 0.00 91 1017.5
20260906053659 20 90 6.4 14.5 0.00 0.15 0.00 91 1017.6
20260906053550 20 83 8.0 14.5 0.00 0.15 0.00 91 1017.6
20260906053501 20 66 8.0 14.5 0.00 0.15 0.00 91 1017.5
20260906053355 20 90 8.0 14.5 0.00 0.15 0.00 91 1017.5
20260906053245 20 84 6.4 14.5 0.00 0.15 0.00 91 1017.4
20260906053207 20 75 6.4 12.9 0.00 0.15 0.00 91 1017.4
20260906053037 20 84 6.4 12.9 0.00 0.15 0.00 91 1017.4
20260906052929 20 74 6.4 12.9 0.00 0.15 0.00 91 1017.4
20260906052820 20 81 4.8 12.9 0.00 0.15 0.00 91 1017.5
20260906052733 20 80 6.4 12.9 0.00 0.15 0.00 91 1017.5
20260906052625 20 79 6.4 12.9 0.00 0.15 0.00 91 1017.5
20260906052538 20 81 6.4 12.9 0.00 0.15 0.00 91 1017.5
20260906052449 20 80 8.0 12.9 0.00 0.15 0.00 91 1017.5
20260906052323 20 109 8.0 11.3 0.00 0.15 0.00 91 1017.5
20260906052236 20 78 6.4 9.7 0.00 0.15 0.00 91 1017.5
20260906052127 20 97 4.8 9.7 0.00 0.15 0.00 91 1017.5
20260906052020 20 106 4.8 9.7 0.00 0.15 0.00 91 1017.5
20260906051931 20 65 3.2 9.7 0.00 0.15 0.00 91 1017.5
20260906051824 20 67 3.2 9.7 0.00 0.15 0.00 91 1017.5
20260906051735 20 67 3.2 9.7 0.00 0.15 0.00 91 1017.4
20260906051658 20 67 3.2 9.7 0.00 0.15 0.00 91 1017.4
20260906051532 20 70 4.8 9.7 0.00 0.15 0.00 91 1017.5
20260906051424 20 88 4.8 9.7 0.00 0.15 0.00 91 1017.4
20260906051336 20 73 4.8 11.3 0.00 0.15 0.00 91 1017.3
20260906051249 20 69 4.8 8.0 0.00 0.15 0.00 91 1017.3
20260906051200 20 69 3.2 9.7 0.00 0.15 0.00 91 1017.3
20260906051051 20 68 4.8 9.7 0.00 0.15 0.00 91 1017.4
20260906050942 20 57 3.2 9.7 0.00 0.15 0.00 91 1017.4
20260906050832 20 71 3.2 9.7 0.00 0.15 0.00 91 1017.4
20260906050724 20 71 4.8 9.7 0.00 0.15 0.00 91 1017.4
20260906050637 20 71 4.8 9.7 0.00 0.15 0.00 91 1017.4
20260906050550 20 101 3.2 9.7 0.00 0.15 0.00 91 1017.4
20260906050445 20 80 4.8 9.7 0.00 0.15 0.00 91 1017.4
20260906050358 20 78 4.8 9.7 0.00 0.15 0.00 91 1017.4
20260906050228 20 61 4.8 12.9 0.00 0.15 0.00 91 1017.3
20260906050149 20 84 4.8 12.9 0.00 0.15 0.00 91 1017.3
20260906050041 20 69 4.8 12.9 0.00 0.15 0.00 91 1017.3
20260906045954 20 76 4.8 12.9 0.00 0.15 0.00 91 1017.3
20260906045905 20 85 4.8 12.9 0.00 0.15 0.00 91 1017.3
20260906045756 20 92 6.4 14.5 0.00 0.15 0.00 91 1017.3
20260906045647 20 79 4.8 14.5 0.00 0.15 0.00 91 1017.3
20260906045539 20 89 4.8 14.5 0.00 0.15 0.00 91 1017.3
20260906045431 20 78 6.4 14.5 0.00 0.15 0.00 91 1017.3
20260906045327 20 101 6.4 14.5 0.00 0.15 0.00 91 1017.3
20260906045237 21 71 4.8 14.5 0.00 0.15 0.00 91 1017.3
20260906045149 21 107 8.0 14.5 0.00 0.15 0.00 91 1017.3
20260906045020 21 100 8.0 14.5 0.00 0.15 0.00 91 1017.3
20260906044931 21 53 8.0 14.5 0.00 0.15 0.00 91 1017.3
20260906044823 21 63 6.4 14.5 0.00 0.15 0.00 91 1017.2
20260906044736 21 65 6.4 14.5 0.00 0.15 0.00 91 1017.3
20260906044658 21 82 4.8 14.5 0.00 0.15 0.00 91 1017.3
20260906044530 21 72 6.4 14.5 0.00 0.15 0.00 91 1017.2
20260906044427 21 86 6.4 14.5 0.00 0.15 0.00 91 1017.2
20260906044319 21 75 6.4 14.5 0.00 0.15 0.00 91 1017.2
20260906044232 21 101 8.0 14.5 0.00 0.15 0.00 91 1017.2
20260906044125 21 87 8.0 14.5 0.00 0.15 0.00 91 1017.2
20260906044037 21 86 6.4 16.1 0.00 0.15 0.00 91 1017.2
20260906043930 21 82 8.0 16.1 0.00 0.15 0.00 91 1017.2
20260906043823 21 80 9.7 16.1 0.00 0.15 0.00 91 1017.3
20260906043735 21 82 8.0 16.1 0.00 0.15 0.00 91 1017.2
20260906043652 21 109 8.0 16.1 0.00 0.15 0.00 91 1017.2
20260906043604 21 78 4.8 16.1 0.00 0.15 0.00 92 1017.1
20260906043517 21 80 8.0 16.1 0.00 0.15 0.00 92 1017.2
20260906043407 21 87 9.7 16.1 0.00 0.15 0.00 92 1017.1
20260906043259 21 66 8.0 16.1 0.00 0.15 0.00 92 1017.1
20260906043156 21 84 6.4 16.1 0.00 0.15 0.00 92 1017.1
20260906043028 21 101 6.4 16.1 0.00 0.15 0.00 92 1017.1
20260906042920 21 108 8.0 16.1 0.00 0.15 0.00 92 1017.0
20260906042832 21 83 8.0 16.1 0.00 0.15 0.00 92 1017.1
20260906042725 21 93 8.0 16.1 0.00 0.15 0.00 92 1017.0
20260906042641 21 86 6.4 14.5 0.00 0.15 0.00 92 1017.1
20260906042533 21 90 4.8 14.5 0.00 0.15 0.00 92 1017.0
20260906042425 21 93 4.8 14.5 0.00 0.15 0.00 93 1017.1
20260906042336 21 77 6.4 14.5 0.00 0.15 0.00 93 1017.1
20260906042249 21 71 9.7 14.5 0.00 0.15 0.00 93 1017.1
20260906042140 21 69 9.7 14.5 0.00 0.15 0.00 93 1017.0
20260906042051 21 82 8.0 12.9 0.00 0.15 0.00 93 1017.1
20260906041922 21 80 8.0 12.9 0.00 0.15 0.00 93 1017.1
20260906041835 21 70 8.0 12.9 0.00 0.15 0.00 93 1017.0
20260906041728 21 64 6.4 12.9 0.00 0.15 0.00 93 1017.1
20260906041654 21 76 6.4 12.9 0.00 0.15 0.00 93 1017.1
20260906041544 21 82 6.4 12.9 0.00 0.15 0.00 93 1017.1
20260906041457 21 71 6.4 12.9 0.00 0.15 0.00 93 1017.1
20260906041347 21 77 6.4 12.9 0.00 0.15 0.00 93 1017.1
20260906041237 21 44 6.4 12.9 0.00 0.15 0.00 94 1017.1
20260906041129 21 64 6.4 12.9 0.00 0.15 0.00 94 1017.2
20260906041041 21 78 4.8 12.9 0.00 0.15 0.00 94 1017.2
20260906040930 21 49 4.8 12.9 0.00 0.15 0.00 94 1017.1
20260906040822 21 57 6.4 12.9 0.00 0.15 0.00 94 1017.2
20260906040734 21 51 6.4 12.9 0.00 0.15 0.00 94 1017.2
20260906040630 21 59 6.4 12.9 0.00 0.15 0.00 94 1017.2
20260906040522 21 70 4.8 12.9 0.00 0.15 0.00 94 1017.2
20260906040434 21 52 3.2 12.9 0.00 0.15 0.00 94 1017.2
20260906040346 21 71 4.8 12.9 0.00 0.15 0.00 94 1017.1
20260906040257 21 35 6.4 12.9 0.00 0.15 0.00 94 1017.1
20260906040215 21 52 4.8 12.9 0.00 0.15 0.15 94 1017.1
20260906040106 21 57 3.2 8.0 0.00 0.15 0.15 94 1017.1
20260906035928 21 57 4.8 8.0 0.00 0.15 0.15 94 1017.1
20260906035820 21 47 4.8 8.0 0.00 0.15 0.15 94 1017.1
20260906035732 21 41 4.8 8.0 0.00 0.15 0.15 94 1017.1
20260906035649 21 78 4.8 8.0 0.00 0.15 0.15 94 1017.0
20260906035541 21 38 4.8 8.0 0.00 0.15 0.15 94 1017.0
20260906035451 21 40 3.2 9.7 0.00 0.15 0.15 94 1017.0
20260906035403 21 54 3.2 9.7 0.00 0.15 0.15 94 1017.0
20260906035253 21 51 4.8 9.7 0.00 0.15 0.15 94 1017.1
20260906035124 21 69 4.8 9.7 0.00 0.15 0.15 94 1017.1
20260906035037 21 76 4.8 9.7 0.00 0.15 0.15 94 1017.0
20260906034929 21 42 4.8 9.7 0.00 0.15 0.15 94 1017.1
20260906034822 21 36 4.8 9.7 0.00 0.15 0.15 94 1017.0
20260906034735 21 67 4.8 9.7 0.00 0.15 0.15 94 1017.1
20260906034701 21 67 3.2 9.7 0.00 0.15 0.15 94 1017.1
20260906034552 21 78 0.0 0.0 0.00 0.15 0.15 94 1017.0
20260906034442 21 78 0.0 0.0 0.00 0.15 0.15 94 1017.1
20260906034333 21 78 0.0 0.0 0.00 0.15 0.15 94 1017.1
20260906034246 21 78 0.0 0.0 0.00 0.15 0.15 94 1017.0
20260906034159 21 78 0.0 0.0 0.00 0.15 0.15 94 1017.0
20260906034110 21 78 0.0 0.0 0.00 0.15 0.15 94 1017.0
20260906034000 21 78 0.0 0.0 0.00 0.15 0.15 94 1017.0
20260906033850 21 78 0.0 0.0 0.00 0.15 0.15 94 1017.0
20260906033741 21 78 0.0 0.0 0.00 0.15 0.15 94 1017.0
20260906033653 21 78 0.0 0.0 0.00 0.15 0.15 94 1017.0
20260906033604 21 78 0.0 0.0 0.00 0.15 0.15 94 1016.9
20260906033455 21 78 0.0 0.0 0.00 0.15 0.15 94 1017.1
20260906033331 21 78 0.0 0.0 0.00 0.15 0.15 94 1017.0
20260906033222 22 78 0.0 0.0 0.00 0.15 0.15 94 1017.0
20260906033145 22 78 0.0 0.0 0.00 0.15 0.15 94 1017.0
20260906033037 21 78 0.0 0.0 0.00 0.15 0.15 94 1017.0
20260906032930 21 78 0.0 0.0 0.00 0.15 0.15 94 1017.0
20260906032821 22 78 0.0 0.0 0.00 0.15 0.15 94 1017.0
20260906032734 22 78 0.0 0.0 0.00 0.15 0.15 94 1017.1
20260906032646 22 78 0.0 0.0 0.00 0.15 0.15 94 1017.0
20260906032538 22 78 0.0 0.0 0.00 0.15 0.15 94 1017.0
20260906032453 22 78 0.0 0.0 0.00 0.15 0.15 94 1017.1
20260906032325 22 78 0.0 0.0 0.00 0.15 0.15 94 1017.0
20260906032238 22 78 0.0 0.0 0.00 0.15 0.15 94 1017.1
20260906032129 22 78 0.0 0.0 0.00 0.15 0.15 94 1017.1
20260906032040 22 78 0.0 0.0 0.00 0.15 0.15 94 1017.1
20260906031952 22 78 0.0 0.0 0.00 0.15 0.15 94 1017.1
20260906031843 22 78 0.0 0.0 0.00 0.15 0.15 94 1017.1
20260906031756 22 78 0.0 0.0 0.00 0.15 0.15 94 1017.1
20260906031720 22 78 0.0 0.0 0.00 0.15 0.15 94 1017.0
20260906031528 22 78 0.0 1.6 0.00 0.15 0.15 94 1017.0
20260906031444 22 78 0.0 3.2 0.00 0.15 0.15 93 1017.1
20260906031336 22 78 0.0 3.2 0.00 0.15 0.15 93 1017.1
20260906031248 22 78 0.0 3.2 0.00 0.15 0.15 93 1017.0
20260906031200 22 78 0.0 3.2 0.00 0.15 0.15 93 1017.0
20260906031030 22 78 0.0 3.2 0.00 0.15 0.15 93 1017.1
20260906030921 22 78 0.0 3.2 0.00 0.15 0.15 93 1017.0
20260906030833 22 78 0.0 3.2 0.00 0.15 0.15 93 1017.0
20260906030744 22 78 1.6 3.2 0.00 0.15 0.15 93 1017.0
20260906030635 22 78 1.6 3.2 0.00 0.15 0.15 93 1017.0
20260906030527 22 78 1.6 3.2 0.00 0.15 0.15 93 1017.0
20260906030423 22 78 1.6 3.2 0.00 0.15 0.15 93 1017.0
20260906030336 22 78 0.0 3.2 0.00 0.15 0.15 93 1017.0
20260906030226 22 78 0.0 3.2 0.00 0.15 0.15 93 1017.0
20260906030147 22 78 0.0 3.2 0.00 0.15 0.15 93 1017.0
20260906030039 22 78 1.6 3.2 0.00 0.15 0.15 93 1017.0
20260906025930 22 78 1.6 3.2 0.00 0.15 0.15 93 1017.0
20260906025843 22 78 1.6 3.2 0.00 0.15 0.15 93 1016.9
20260906025754 22 78 1.6 3.2 0.00 0.15 0.15 93 1016.9
20260906025646 22 78 1.6 3.2 0.00 0.15 0.15 93 1016.9
20260906025537 22 78 1.6 3.2 0.00 0.15 0.15 92 1016.8
20260906025431 22 78 1.6 3.2 0.00 0.15 0.15 92 1016.9
20260906025343 22 78 1.6 3.2 0.00 0.15 0.15 92 1016.9
20260906025233 22 78 1.6 3.2 0.00 0.15 0.15 92 1016.9
20260906025126 22 78 1.6 3.2 0.00 0.15 0.15 92 1016.9
20260906025038 22 78 0.0 1.6 0.00 0.15 0.15 92 1016.9
20260906024930 22 78 0.0 0.0 0.00 0.15 0.15 92 1016.8
20260906024842 22 78 0.0 0.0 0.00 0.15 0.15 92 1016.9
20260906024754 22 78 0.0 0.0 0.00 0.15 0.15 92 1016.8
20260906024655 22 78 0.0 1.6 0.00 0.15 0.15 92 1016.8
20260906024526 22 78 0.0 1.6 0.00 0.15 0.15 92 1016.9
20260906024421 22 78 0.0 1.6 0.00 0.15 0.15 92 1016.9
20260906024333 22 78 0.0 1.6 0.00 0.15 0.15 92 1016.9
20260906024225 22 78 0.0 1.6 0.00 0.15 0.15 92 1016.8
20260906024137 22 78 0.0 1.6 0.00 0.15 0.15 92 1016.9
20260906024029 22 78 0.0 1.6 0.00 0.15 0.15 92 1016.8
20260906023942 22 78 0.0 1.6 0.00 0.15 0.15 92 1016.8
20260906023855 22 78 0.0 1.6 0.00 0.15 0.15 92 1016.9
20260906023746 22 78 0.0 1.6 0.00 0.15 0.15 92 1016.9
20260906023638 22 78 0.0 1.6 0.00 0.15 0.15 92 1016.9
20260906023535 22 78 0.0 1.6 0.00 0.15 0.15 92 1016.8
20260906023429 22 78 0.0 1.6 0.00 0.15 0.15 92 1016.9
20260906023340 22 78 0.0 1.6 0.00 0.15 0.15 92 1016.9
20260906023250 22 78 0.0 4.8 0.00 0.15 0.15 92 1016.9
20260906023152 22 78 0.0 4.8 0.00 0.15 0.15 92 1016.9
20260906023043 22 78 0.0 4.8 0.00 0.15 0.15 92 1016.9
20260906022955 22 78 0.0 4.8 0.00 0.15 0.15 92 1016.9
20260906022845 22 78 0.0 4.8 0.00 0.15 0.15 92 1016.8
20260906022756 22 78 0.0 4.8 0.00 0.15 0.15 92 1016.8
20260906022628 22 78 0.0 4.8 0.00 0.15 0.15 92 1016.9
20260906022542 22 78 1.6 4.8 0.00 0.15 0.15 92 1016.8
20260906022457 22 78 1.6 4.8 0.00 0.15 0.15 92 1016.8
20260906022409 22 78 1.6 4.8 0.00 0.15 0.15 92 1016.8
20260906022322 22 78 1.6 4.8 0.00 0.15 0.15 92 1016.9
20260906022214 22 78 1.6 4.8 0.00 0.15 0.15 92 1016.9
20260906022104 22 78 3.2 4.8 0.00 0.15 0.15 92 1016.8
20260906021955 22 78 1.6 4.8 0.00 0.15 0.15 92 1016.8
20260906021827 22 78 0.0 4.8 0.00 0.15 0.15 92 1016.8
20260906021720 22 78 0.0 6.4 0.00 0.15 0.15 92 1016.8
20260906021642 22 78 0.0 6.4 0.00 0.15 0.15 92 1016.9
20260906021532 22 78 0.0 6.4 0.00 0.15 0.15 91 1016.8
20260906021429 22 78 0.0 6.4 0.00 0.15 0.15 91 1016.8
20260906021342 22 78 0.0 6.4 0.00 0.15 0.15 92 1016.9
20260906021255 22 78 1.6 6.4 0.00 0.15 0.15 91 1016.8
20260906021037 22 78 1.6 6.4 0.00 0.15 0.15 92 1016.8
20260906020930 22 78 1.6 6.4 0.00 0.15 0.15 91 1016.8
20260906020842 22 78 0.0 0.0 0.00 0.15 0.15 91 1016.7
20260906020752 22 78 0.0 0.0 0.00 0.15 0.15 92 1016.8
20260906020624 22 78 0.0 0.0 0.00 0.15 0.15 91 1016.7
20260906020520 22 78 0.0 0.0 0.00 0.15 0.15 91 1016.7
20260906020432 22 78 0.0 0.0 0.00 0.15 0.15 91 1016.7
20260906020324 22 78 0.0 0.0 0.00 0.15 0.15 91 1016.7
20260906020235 22 78 0.0 0.0 0.00 0.15 0.15 91 1016.8
20260906020157 22 78 0.0 0.0 0.00 0.15 0.15 91 1016.8
20260906020028 22 78 0.0 0.0 0.00 0.15 0.15 91 1016.7
20260906015939 22 78 0.0 0.0 0.00 0.15 0.15 91 1016.7
20260906015831 22 78 0.0 0.0 0.00 0.15 0.15 91 1016.7
20260906015723 22 78 0.0 0.0 0.00 0.15 0.15 91 1016.7
20260906015619 22 78 0.0 0.0 0.00 0.15 0.15 91 1016.9
20260906015532 22 78 0.0 0.0 0.00 0.15 0.15 91 1016.8
20260906015424 22 78 0.0 0.0 0.00 0.15 0.15 91 1016.7
20260906015336 22 78 0.0 0.0 0.00 0.15 0.15 91 1016.8
20260906015229 22 78 0.0 0.0 0.00 0.15 0.15 91 1016.7
20260906015120 22 78 0.0 0.0 0.00 0.15 0.15 91 1016.8
20260906015032 22 78 0.0 0.0 0.00 0.15 0.15 91 1016.8
20260906014944 22 78 0.0 0.0 0.00 0.15 0.15 91 1016.7
20260906014835 22 78 0.0 0.0 0.00 0.15 0.15 91 1016.7
20260906014732 22 78 0.0 0.0 0.00 0.15 0.15 91 1016.7
20260906014653 22 78 0.0 0.0 0.00 0.15 0.15 91 1016.7
20260906014525 22 78 0.0 0.0 0.00 0.15 0.15 91 1016.7
20260906014435 22 78 0.0 0.0 0.00 0.15 0.15 91 1016.7
20260906014328 22 78 0.0 0.0 0.00 0.15 0.15 90 1016.6
20260906014241 22 78 0.0 0.0 0.00 0.15 0.15 90 1016.6
20260906014132 22 78 0.0 0.0 0.00 0.15 0.15 90 1016.6
20260906014023 22 78 0.0 0.0 0.00 0.15 0.15 90 1016.5
20260906013935 22 78 0.0 0.0 0.00 0.15 0.15 90 1016.6
20260906013830 22 78 0.0 0.0 0.00 0.15 0.15 90 1016.6
20260906013743 22 78 0.0 0.0 0.00 0.15 0.15 90 1016.6
20260906013634 22 78 0.0 0.0 0.00 0.15 0.15 90 1016.6
20260906013546 22 78 0.0 1.6 0.00 0.15 0.15 90 1016.5
20260906013458 22 78 0.0 4.8 0.00 0.15 0.15 90 1016.5
20260906013329 22 78 0.0 6.4 0.00 0.15 0.15 90 1016.5
20260906013239 22 78 0.0 6.4 0.00 0.15 0.15 90 1016.5
20260906013202 22 78 0.0 6.4 0.00 0.15 0.15 90 1016.5
20260906013031 22 78 0.0 6.4 0.00 0.15 0.15 90 1016.5
20260906012944 22 78 0.0 6.4 0.00 0.15 0.15 90 1016.4
20260906012856 22 78 1.6 8.0 0.00 0.15 0.15 90 1016.5
20260906012730 22 78 3.2 8.0 0.00 0.15 0.15 90 1016.4
20260906012622 22 78 3.2 8.0 0.00 0.15 0.15 90 1016.4
20260906012534 22 78 3.2 8.0 0.00 0.15 0.15 90 1016.4
20260906012445 22 78 3.2 8.0 0.00 0.15 0.15 90 1016.3
20260906012357 22 78 3.2 11.3 0.00 0.15 0.15 90 1016.4
20260906012228 22 78 3.2 11.3 0.00 0.15 0.15 90 1016.3
20260906012139 22 78 3.2 11.3 0.00 0.15 0.15 90 1016.4
20260906012030 22 78 4.8 11.3 0.00 0.15 0.15 90 1016.3
20260906011943 22 48 4.8 11.3 0.00 0.15 0.15 90 1016.4
20260906011854 22 54 4.8 11.3 0.00 0.15 0.15 90 1016.4
20260906011739 22 54 4.8 11.3 0.00 0.15 0.15 90 1016.3
20260906011641 22 59 6.4 14.5 0.00 0.15 0.15 90 1016.3
20260906011533 22 105 6.4 14.5 0.00 0.15 0.15 90 1016.4
20260906011425 22 71 6.4 14.5 0.00 0.15 0.15 90 1016.3
20260906011337 22 80 6.4 14.5 0.00 0.15 0.15 90 1016.4
20260906011228 22 61 6.4 14.5 0.00 0.15 0.15 89 1016.3
20260906011140 22 76 4.8 14.5 0.00 0.15 0.15 89 1016.3
20260906011053 22 78 6.4 14.5 0.00 0.15 0.15 89 1016.3
20260906010922 22 53 8.0 14.5 0.00 0.15 0.15 89 1016.2
20260906010838 22 65 9.7 14.5 0.00 0.15 0.15 89 1016.2
20260906010730 22 84 8.0 12.9 0.00 0.15 0.15 89 1016.2
20260906010621 22 66 4.8 12.9 0.00 0.15 0.15 89 1016.2
20260906010533 22 61 4.8 12.9 0.00 0.15 0.15 89 1016.3
20260906010444 22 74 4.8 16.1 0.00 0.15 0.15 89 1016.3
20260906010358 22 74 6.4 16.1 0.00 0.15 0.15 89 1016.3
20260906010228 22 64 8.0 16.1 0.00 0.15 0.15 89 1016.3
20260906010151 22 69 8.0 16.1 0.00 0.15 0.15 89 1016.3
20260906010021 22 47 3.2 16.1 0.00 0.15 0.15 89 1016.2
20260906005937 22 68 4.8 16.1 0.00 0.15 0.15 89 1016.2
20260906005827 22 68 6.4 16.1 0.00 0.15 0.15 89 1016.3
20260906005740 22 72 8.0 16.1 0.00 0.15 0.15 89 1016.3
20260906005633 22 65 8.0 16.1 0.00 0.15 0.15 89 1016.3
20260906005544 22 53 6.4 14.5 0.00 0.15 0.15 89 1016.3
20260906005435 22 60 6.4 14.5 0.00 0.15 0.15 89 1016.3
20260906005328 22 57 4.8 12.9 0.00 0.15 0.15 89 1016.1
20260906005221 22 65 4.8 12.9 0.00 0.15 0.15 89 1016.2
20260906005133 22 84 4.8 12.9 0.00 0.15 0.15 89 1016.2
20260906005028 22 51 6.4 12.9 0.00 0.15 0.15 89 1016.2
20260906004921 22 71 6.4 12.9 0.00 0.15 0.15 89 1016.2
20260906004833 22 77 8.0 12.9 0.00 0.15 0.15 89 1016.2
20260906004744 22 76 6.4 12.9 0.00 0.15 0.15 89 1016.2
20260906004706 22 72 6.4 12.9 0.00 0.15 0.15 89 1016.2
20260906004559 22 73 6.4 12.9 0.00 0.15 0.15 88 1016.2
20260906004430 22 49 4.8 12.9 0.00 0.15 0.15 89 1016.3
20260906004322 22 80 6.4 12.9 0.00 0.15 0.15 88 1016.2
20260906004234 22 17 6.4 14.5 0.00 0.15 0.15 88 1016.3
20260906004130 22 82 6.4 14.5 0.00 0.15 0.15 88 1016.1
20260906004043 22 74 4.8 16.1 0.00 0.15 0.15 88 1016.2
20260906003933 22 44 6.4 16.1 0.00 0.15 0.15 88 1016.2
20260906003827 22 63 6.4 16.1 0.00 0.15 0.15 88 1016.1
20260906003738 22 51 6.4 16.1 0.00 0.15 0.15 88 1016.1
20260906003630 22 69 4.8 16.1 0.00 0.15 0.15 88 1016.0
20260906003522 22 78 4.8 16.1 0.00 0.15 0.15 88 1016.0
20260906003433 22 67 8.0 16.1 0.00 0.15 0.15 88 1016.0
20260906003327 22 94 9.7 16.1 0.00 0.15 0.15 88 1016.0
20260906003220 22 67 8.0 16.1 0.00 0.15 0.15 88 1016.0
20260906003144 22 119 8.0 16.1 0.00 0.15 0.15 88 1016.0
20260906003035 22 72 8.0 14.5 0.00 0.15 0.15 88 1016.0
20260906002928 22 80 8.0 14.5 0.00 0.15 0.15 88 1016.0
20260906002821 22 78 6.4 14.5 0.00 0.15 0.15 88 1015.9
20260906002732 22 90 6.4 14.5 0.00 0.15 0.15 88 1015.9
20260906002645 22 87 4.8 14.5 0.00 0.15 0.15 88 1015.8
20260906002535 22 105 4.8 14.5 0.00 0.15 0.15 88 1015.9
20260906002426 22 107 6.4 22.5 0.00 0.15 0.15 88 1015.8
20260906002343 22 77 8.0 22.5 0.00 0.15 0.15 88 1015.8
20260906002254 22 85 8.0 22.5 0.00 0.15 0.15 88 1015.8
20260906002146 22 98 9.7 22.5 0.00 0.15 0.15 88 1015.9
20260906002057 22 93 9.7 22.5 0.00 0.15 0.15 88 1015.8
20260906001927 22 97 9.7 22.5 0.00 0.15 0.15 88 1015.8
20260906001839 22 84 9.7 22.5 0.00 0.15 0.15 88 1015.8
20260906001731 22 69 11.3 22.5 0.00 0.15 0.15 88 1015.8
20260906001652 22 63 14.5 22.5 0.00 0.15 0.15 88 1015.8
20260906001523 22 107 12.9 22.5 0.00 0.15 0.15 88 1015.8
20260906001435 22 93 8.0 19.3 0.00 0.15 0.15 88 1015.8
20260906001332 22 89 8.0 19.3 0.00 0.15 0.15 88 1015.8
20260906001225 22 96 8.0 19.3 0.00 0.15 0.15 88 1015.7
20260906001137 22 87 9.7 19.3 0.00 0.15 0.15 88 1015.8
20260906001029 23 74 12.9 19.3 0.00 0.15 0.15 88 1015.7
20260906000921 23 76 9.7 16.1 0.00 0.15 0.15 88 1015.8
20260906000833 23 24 6.4 16.1 0.00 0.15 0.15 88 1015.7
20260906000726 23 44 8.0 16.1 0.00 0.15 0.15 88 1015.8
20260906000637 23 86 6.4 16.1 0.00 0.15 0.15 88 1015.7
20260906000552 23 55 4.8 17.7 0.00 0.15 0.15 88 1015.6
20260906000423 23 57 6.4 17.7 0.00 0.15 0.15 88 1015.6
20260906000333 23 71 9.7 17.7 0.00 0.15 0.15 88 1015.6
20260906000226 23 92 11.3 17.7 0.00 0.15 0.15 88 1015.6
20260906000146 23 86 9.7 17.7 0.00 0.15 0.15 88 1015.7
20260906000036 23 81 9.7 17.7 0.00 0.15 0.15 88 1015.6
20260905235929 23 54 9.7 17.7 0.00 0.15 0.15 88 1015.6
20260905235822 23 78 9.7 17.7 0.00 0.15 0.15 88 1015.6
20260905235734 23 85 9.7 17.7 0.00 0.15 0.15 88 1015.7
20260905235630 23 58 8.0 14.5 0.00 0.15 0.15 88 1015.6
20260905235542 23 44 6.4 14.5 0.00 0.15 0.15 88 1015.8
20260905235432 23 54 8.0 14.5 0.00 0.15 0.15 88 1015.6
20260905235324 23 75 8.0 14.5 0.00 0.15 0.15 88 1015.8
20260905235235 23 51 6.4 19.3 0.00 0.15 0.15 88 1015.7
20260905235128 23 69 6.4 20.9 0.00 0.15 0.15 88 1015.6
20260905235020 23 63 4.8 20.9 0.00 0.15 0.15 88 1015.6
20260905234933 23 55 6.4 20.9 0.00 0.15 0.15 88 1015.6
20260905234829 23 68 8.0 20.9 0.00 0.15 0.15 88 1015.6
20260905234722 23 82 8.0 20.9 0.00 0.15 0.15 88 1015.5
20260905234644 23 113 8.0 20.9 0.00 0.15 0.15 88 1015.6
20260905234534 23 50 9.7 20.9 0.00 0.15 0.15 88 1015.5
20260905234427 23 109 11.3 20.9 0.00 0.15 0.15 88 1015.5
20260905234339 23 90 11.3 20.9 0.00 0.15 0.15 88 1015.5
20260905234232 23 85 9.7 17.7 0.00 0.15 0.15 88 1015.5
20260905234124 23 74 6.4 17.7 0.00 0.15 0.15 88 1015.5
20260905234020 23 90 8.0 17.7 0.00 0.15 0.15 88 1015.5
20260905233933 23 71 8.0 17.7 0.00 0.15 0.15 88 1015.6
20260905233824 23 72 6.4 19.3 0.00 0.15 0.15 88 1015.5
20260905233736 23 62 8.0 19.3 0.00 0.15 0.15 88 1015.6
20260905233627 23 73 9.7 19.3 0.00 0.15 0.15 88 1015.5
20260905233519 23 72 9.7 19.3 0.00 0.15 0.15 88 1015.5
20260905233431 23 95 9.7 19.3 0.00 0.15 0.15 88 1015.5
20260905233322 23 74 9.7 19.3 0.00 0.15 0.15 88 1015.6
20260905233232 23 101 8.0 19.3 0.00 0.15 0.15 88 1015.6
20260905233159 23 90 8.0 19.3 0.00 0.15 0.15 88 1015.6
20260905233048 23 86 11.3 19.3 0.00 0.15 0.15 88 1015.5
20260905232920 23 75 9.7 19.3 0.00 0.15 0.15 88 1015.5
20260905232832 23 92 9.7 19.3 0.00 0.15 0.15 88 1015.5
20260905232725 23 65 9.7 19.3 0.00 0.15 0.15 88 1015.6
20260905232638 23 66 8.0 19.3 0.00 0.15 0.15 88 1015.6
20260905232530 23 80 9.7 19.3 0.00 0.15 0.15 88 1015.5
20260905232423 23 80 8.0 19.3 0.00 0.15 0.15 88 1015.5
20260905232320 23 34 8.0 16.1 0.00 0.15 0.15 88 1015.4
20260905232233 23 92 8.0 16.1 0.00 0.15 0.15 88 1015.5
20260905232124 23 86 8.0 16.1 0.00 0.15 0.15 88 1015.5
20260905232036 23 76 8.0 16.1 0.00 0.15 0.15 88 1015.5
20260905231928 23 104 8.0 16.1 0.00 0.15 0.15 88 1015.5
20260905231838 23 74 4.8 16.1 0.00 0.15 0.15 88 1015.5
20260905231730 23 67 4.8 16.1 0.00 0.15 0.15 88 1015.5
20260905231653 23 74 6.4 16.1 0.00 0.15 0.15 88 1015.5
20260905231525 23 86 8.0 16.1 0.00 0.15 0.15 88 1015.6
20260905231421 23 59 4.8 16.1 0.00 0.15 0.15 88 1015.5
20260905231333 23 63 4.8 19.3 0.00 0.15 0.15 88 1015.6
20260905231227 23 93 4.8 19.3 0.00 0.15 0.15 88 1015.5
20260905231119 23 75 6.4 19.3 0.00 0.15 0.15 88 1015.5
20260905231031 23 94 8.0 19.3 0.00 0.15 0.15 88 1015.5
20260905230924 23 75 9.7 19.3 0.00 0.15 0.15 88 1015.5
20260905230835 23 96 8.0 19.3 0.00 0.15 0.15 88 1015.5
20260905230727 23 84 8.0 19.3 0.00 0.15 0.15 88 1015.4
20260905230644 23 55 9.7 19.3 0.00 0.15 0.15 88 1015.4
20260905230535 23 78 9.7 19.3 0.00 0.15 0.15 88 1015.4
20260905230426 23 109 9.7 19.3 0.00 0.15 0.15 88 1015.4
20260905230339 23 51 12.9 19.3 0.00 0.15 0.15 88 1015.3
20260905230230 23 61 9.7 19.3 0.00 0.15 0.15 88 1015.5
20260905230151 23 31 8.0 19.3 0.00 0.15 0.15 88 1015.5
20260905230023 23 72 8.0 19.3 0.00 0.15 0.15 88 1015.4
20260905225935 23 32 8.0 19.3 0.00 0.15 0.15 88 1015.4
20260905225827 23 43 8.0 19.3 0.00 0.15 0.15 88 1015.4
20260905225723 23 13 8.0 19.3 0.00 0.15 0.15 88 1015.4
20260905225635 23 78 9.7 19.3 0.00 0.15 0.15 88 1015.3
20260905225528 23 86 9.7 19.3 0.00 0.15 0.15 88 1015.3
20260905225420 23 53 9.7 22.5 0.00 0.15 0.15 88 1015.3
20260905225332 23 65 8.0 24.1 0.00 0.15 0.15 88 1015.3
20260905225223 23 86 11.3 24.1 0.00 0.15 0.15 88 1015.2
20260905225135 23 83 12.9 24.1 0.00 0.15 0.15 88 1015.3
20260905225047 23 87 11.3 24.1 0.00 0.15 0.15 88 1015.3
20260905224959 23 69 9.7 24.1 0.00 0.15 0.15 88 1015.3
20260905224855 23 147 9.7 24.1 0.00 0.15 0.15 88 1015.2
20260905224726 23 109 12.9 24.1 0.00 0.15 0.15 88 1015.3
20260905224648 23 62 12.9 24.1 0.00 0.15 0.15 88 1015.2
20260905224539 23 94 12.9 24.1 0.00 0.15 0.15 88 1015.3
20260905224429 23 77 11.3 19.3 0.00 0.15 0.15 88 1015.1
20260905224341 23 80 9.7 19.3 0.00 0.15 0.15 88 1015.2
20260905224253 23 53 8.0 19.3 0.00 0.15 0.15 88 1015.2
20260905224206 23 92 8.0 20.9 0.00 0.15 0.15 88 1015.2
20260905224057 23 47 8.0 20.9 0.00 0.15 0.15 88 1015.3
20260905223928 23 88 11.3 20.9 0.00 0.15 0.15 88 1015.2
20260905223824 23 82 9.7 20.9 0.00 0.15 0.15 88 1015.2
20260905223736 24 38 8.0 20.9 0.00 0.15 0.15 88 1015.2
20260905223648 23 59 9.7 20.9 0.00 0.15 0.15 88 1015.3
20260905223559 23 61 12.9 20.9 0.00 0.15 0.15 88 1015.2
20260905223450 24 34 11.3 20.9 0.00 0.15 0.15 88 1015.2
20260905223340 24 67 11.3 20.9 0.00 0.15 0.15 88 1015.3
20260905223254 24 344 9.7 20.9 0.00 0.15 0.15 88 1015.3
20260905223214 24 80 9.7 20.9 0.00 0.15 0.15 88 1015.2
20260905223025 24 34 11.3 20.9 0.00 0.15 0.15 88 1015.2
20260905222936 24 49 12.9 20.9 0.00 0.15 0.15 88 1015.2
20260905222833 24 32 9.7 20.9 0.00 0.15 0.15 88 1015.1
20260905222726 24 57 9.7 20.9 0.00 0.15 0.15 88 1015.2
20260905222637 24 12 9.7 20.9 0.00 0.15 0.15 88 1015.2
20260905222529 24 67 9.7 20.9 0.00 0.15 0.15 88 1015.2
20260905222442 24 98 12.9 20.9 0.00 0.15 0.15 87 1015.2
20260905222355 24 34 12.9 20.9 0.00 0.15 0.15 87 1015.1
20260905222246 24 68 12.9 20.9 0.00 0.15 0.15 87 1015.1
20260905222158 24 80 12.9 27.4 0.00 0.15 0.15 87 1015.2
20260905222029 24 24 14.5 27.4 0.00 0.15 0.15 87 1015.1
20260905221925 24 59 14.5 27.4 0.00 0.15 0.15 87 1015.1
20260905221837 25 72 14.5 29.0 0.00 0.15 0.15 87 1015.0
20260905221730 25 87 11.3 29.0 0.00 0.15 0.15 87 1015.1
20260905221651 25 69 8.0 29.0 0.00 0.15 0.15 87 1015.1
20260905221523 25 49 9.7 29.0 0.00 0.15 0.15 86 1014.9
20260905221435 25 58 12.9 29.0 0.00 0.15 0.15 86 1014.9
20260905221327 25 78 12.9 29.0 0.00 0.15 0.15 86 1015.0
20260905221239 25 44 11.3 29.0 0.00 0.15 0.15 86 1014.9
20260905221129 25 70 16.1 29.0 0.00 0.15 0.15 85 1014.9
20260905221025 25 50 14.5 29.0 0.00 0.15 0.15 85 1014.8
20260905220937 25 82 12.9 24.1 0.00 0.15 0.15 85 1014.8
20260905220825 25 73 16.1 24.1 0.00 0.15 0.15 85 1014.8
20260905220738 25 44 17.7 24.1 0.00 0.15 0.15 85 1014.8
20260905220630 25 61 16.1 24.1 0.00 0.15 0.15 85 1014.9
20260905220523 26 73 11.3 20.9 0.00 0.15 0.15 85 1014.8
20260905220433 26 83 11.3 20.9 0.00 0.15 0.15 85 1014.7
20260905220326 26 71 11.3 20.9 0.00 0.15 0.15 85 1014.7
20260905220221 26 62 12.9 20.9 0.00 0.15 0.15 85 1014.7
20260905220142 26 68 12.9 20.9 0.00 0.15 0.15 85 1014.8
20260905220033 26 12 11.3 19.3 0.00 0.15 0.15 86 1014.8
20260905215925 26 35 9.7 19.3 0.00 0.15 0.15 85 1014.7
20260905215838 26 15 8.0 17.7 0.00 0.15 0.15 85 1014.7
20260905215730 26 30 8.0 17.7 0.00 0.15 0.15 85 1014.7
20260905215623 26 22 8.0 19.3 0.00 0.15 0.15 85 1014.7
20260905215535 26 73 9.7 19.3 0.00 0.15 0.15 85 1014.6
20260905215430 26 60 9.7 19.3 0.00 0.15 0.15 85 1014.6
20260905215322 26 56 11.3 19.3 0.00 0.15 0.15 84 1014.7
20260905215233 26 82 12.9 19.3 0.00 0.15 0.15 84 1014.7
20260905215126 26 51 12.9 19.3 0.00 0.15 0.15 84 1014.6
20260905215038 26 62 11.3 19.3 0.00 0.15 0.15 84 1014.6
20260905214930 26 61 12.9 19.3 0.00 0.15 0.15 84 1014.7
20260905214822 26 60 12.9 19.3 0.00 0.15 0.15 84 1014.6
20260905214734 26 76 11.3 20.9 0.00 0.15 0.15 84 1014.6
20260905214656 26 40 11.3 20.9 0.00 0.15 0.15 84 1014.6
20260905214532 26 88 8.0 20.9 0.00 0.15 0.15 84 1014.5
20260905214424 26 88 9.7 20.9 0.00 0.15 0.15 84 1014.6
20260905214336 26 49 9.7 20.9 0.00 0.15 0.15 84 1014.6
20260905214248 26 67 9.7 20.9 0.00 0.15 0.15 83 1014.5
20260905214119 26 80 11.3 20.9 0.00 0.15 0.15 83 1014.6
20260905214032 26 27 12.9 20.9 0.00 0.15 0.15 83 1014.5
20260905213944 26 30 14.5 20.9 0.00 0.15 0.15 82 1014.7
20260905213855 26 61 14.5 20.9 0.00 0.15 0.15 83 1014.7
20260905213808 26 63 12.9 20.9 0.00 0.15 0.15 83 1014.5
20260905213721 26 44 11.3 20.9 0.00 0.15 0.15 84 1014.6
20260905213616 26 35 9.7 16.1 0.00 0.15 0.15 84 1014.6
20260905213508 26 78 8.0 16.1 0.00 0.15 0.15 84 1014.6
20260905213400 26 40 6.4 16.1 0.00 0.15 0.15 84 1014.5
20260905213229 26 67 6.4 16.1 0.00 0.15 0.15 84 1014.4
20260905213151 26 57 6.4 20.9 0.00 0.15 0.15 84 1014.4
20260905213023 26 30 8.0 20.9 0.00 0.15 0.15 84 1014.4
20260905212935 26 92 8.0 20.9 0.00 0.15 0.15 83 1014.4
20260905212825 26 79 11.3 20.9 0.00 0.15 0.15 83 1014.4
20260905212737 26 84 9.7 20.9 0.00 0.15 0.15 83 1014.4
20260905212629 26 63 6.4 20.9 0.00 0.15 0.15 83 1014.4
20260905212526 26 57 8.0 20.9 0.00 0.15 0.15 82 1014.4
20260905212438 26 36 11.3 20.9 0.00 0.15 0.15 82 1014.5
20260905212330 26 73 11.3 20.9 0.00 0.15 0.15 82 1014.4
20260905212243 27 82 8.0 20.9 0.00 0.15 0.15 83 1014.4
20260905212155 27 78 9.7 20.9 0.00 0.15 0.15 82 1014.3
20260905212026 27 42 9.7 20.9 0.00 0.15 0.15 82 1014.4
20260905211939 27 24 11.3 20.9 0.00 0.15 0.15 82 1014.3
20260905211832 27 33 11.3 20.9 0.00 0.15 0.15 83 1014.3
20260905211744 27 43 11.3 20.9 0.00 0.15 0.15 82 1014.3
20260905211720 27 360 11.3 20.9 0.00 0.15 0.15 82 1014.3
20260905211530 27 49 12.9 20.9 0.00 0.15 0.15 82 1014.4
20260905211442 27 62 14.5 20.9 0.00 0.15 0.15 82 1014.4
20260905211334 27 33 12.9 20.9 0.00 0.15 0.15 82 1014.4
20260905211226 27 33 9.7 17.7 0.00 0.15 0.15 83 1014.4
20260905211139 26 41 11.3 17.7 0.00 0.15 0.15 83 1014.5
20260905211031 26 28 9.7 16.1 0.00 0.15 0.15 83 1014.3
20260905210922 26 5 9.7 16.1 0.00 0.15 0.15 84 1014.5
20260905210835 26 333 8.0 14.5 0.00 0.15 0.15 84 1014.4
20260905210731 26 15 4.8 12.9 0.00 0.15 0.15 84 1014.4
20260905210623 26 5 8.0 12.9 0.00 0.15 0.15 85 1014.4
20260905210535 26 22 8.0 12.9 0.00 0.15 0.15 84 1014.4
20260905210426 26 27 8.0 11.3 0.00 0.15 0.15 84 1014.4
20260905210338 26 32 6.4 11.3 0.00 0.15 0.15 84 1014.4
20260905210229 26 47 6.4 11.3 0.00 0.15 0.15 84 1014.4
20260905210151 26 37 8.0 11.3 0.00 0.15 0.15 84 1014.4
20260905210043 26 23 8.0 11.3 0.00 0.15 0.15 83 1014.4
20260905205933 26 13 8.0 17.7 0.00 0.15 0.15 83 1014.3
20260905205829 26 19 8.0 17.7 0.00 0.15 0.15 83 1014.3
20260905205741 26 33 8.0 17.7 0.00 0.15 0.15 83 1014.3
20260905205653 26 52 8.0 17.7 0.00 0.15 0.15 83 1014.4
20260905205544 26 13 6.4 17.7 0.00 0.15 0.15 83 1014.4
20260905205435 26 35 6.4 17.7 0.00 0.15 0.15 83 1014.4
20260905205348 26 5 6.4 17.7 0.00 0.15 0.15 82 1014.4
20260905205300 26 348 8.0 17.7 0.00 0.15 0.15 82 1014.4
20260905205132 26 12 9.7 17.7 0.00 0.15 0.15 82 1014.3
20260905205044 27 40 8.0 17.7 0.00 0.15 0.15 82 1014.4
20260905204958 27 57 8.0 17.7 0.00 0.15 0.15 82 1014.3
20260905204832 27 51 11.3 17.7 0.00 0.15 0.15 82 1014.4
20260905204722 27 30 11.3 19.3 0.00 0.15 0.15 82 1014.4
20260905204644 27 38 11.3 19.3 0.00 0.15 0.15 82 1014.4
20260905204536 27 15 12.9 19.3 0.00 0.15 0.15 81 1014.4
20260905204428 27 48 12.9 19.3 0.00 0.15 0.15 81 1014.4
20260905204340 27 51 12.9 19.3 0.00 0.15 0.15 81 1014.4
20260905204230 27 39 11.3 19.3 0.00 0.15 0.15 81 1014.4
20260905204141 27 10 11.3 19.3 0.00 0.15 0.15 81 1014.3
20260905204053 27 69 12.9 19.3 0.00 0.15 0.15 80 1014.3
20260905203928 27 23 12.9 19.3 0.00 0.15 0.15 80 1014.2
20260905203841 27 42 9.7 19.3 0.00 0.15 0.15 81 1014.4
20260905203753 27 42 8.0 14.5 0.00 0.15 0.15 82 1014.3
20260905203644 27 16 6.4 16.1 0.00 0.15 0.15 81 1014.4
20260905203536 27 56 6.4 16.1 0.00 0.15 0.15 80 1014.3
20260905203428 27 331 8.0 16.1 0.00 0.15 0.15 80 1014.3
20260905203341 27 351 8.0 16.1 0.00 0.15 0.15 80 1014.3
20260905203253 27 342 4.8 16.1 0.00 0.15 0.15 82 1014.3
20260905203214 27 79 4.8 16.1 0.00 0.15 0.15 81 1014.3
20260905203044 27 17 6.4 16.1 0.00 0.15 0.15 80 1014.4
20260905202957 27 64 8.0 16.1 0.00 0.15 0.15 80 1014.3
20260905202833 27 70 8.0 16.1 0.00 0.15 0.15 80 1014.3
20260905202746 27 9 8.0 16.1 0.00 0.15 0.15 80 1014.4
20260905202658 27 61 9.7 16.1 0.00 0.15 0.15 80 1014.4
20260905202549 27 36 11.3 16.1 0.00 0.15 0.15 80 1014.4
20260905202500 27 66 11.3 16.1 0.00 0.15 0.15 80 1014.5
20260905202332 27 22 8.0 16.1 0.00 0.15 0.15 81 1014.5
20260905202244 27 5 8.0 14.5 0.00 0.15 0.15 81 1014.4
20260905202136 27 41 6.4 14.5 0.00 0.15 0.15 81 1014.4
20260905202028 27 32 8.0 14.5 0.00 0.15 0.15 81 1014.5
20260905201920 27 24 6.4 16.1 0.00 0.15 0.15 81 1014.5
20260905201835 27 31 8.0 16.1 0.00 0.15 0.15 81 1014.5
20260905201748 27 26 8.0 17.7 0.00 0.15 0.15 80 1014.5
20260905201649 27 32 6.4 17.7 0.00 0.15 0.15 80 1014.6
20260905201541 27 355 6.4 17.7 0.00 0.15 0.15 80 1014.5
20260905201453 27 38 6.4 17.7 0.00 0.15 0.15 79 1014.6
20260905201323 27 24 8.0 17.7 0.00 0.15 0.15 79 1014.6
20260905201235 27 59 9.7 17.7 0.00 0.15 0.15 79 1014.6
20260905201148 27 30 11.3 17.7 0.00 0.15 0.15 78 1014.5
20260905201059 27 38 11.3 17.7 0.00 0.15 0.15 79 1014.6
20260905200930 27 81 9.7 17.7 0.00 0.15 0.15 79 1014.6
20260905200842 27 36 9.7 16.1 0.00 0.15 0.15 79 1014.6
20260905200737 27 59 8.0 16.1 0.00 0.15 0.15 80 1014.6
20260905200629 27 54 8.0 16.1 0.00 0.15 0.15 79 1014.6
20260905200522 27 67 11.3 16.1 0.00 0.15 0.15 79 1014.6
20260905200433 27 46 11.3 16.1 0.00 0.15 0.15 79 1014.7
20260905200346 27 38 11.3 16.1 0.00 0.15 0.15 80 1014.8
20260905200257 27 66 8.0 16.1 0.00 0.15 0.15 81 1014.7
20260905200159 27 355 6.4 16.1 0.00 0.15 0.15 81 1014.7
20260905200031 27 89 8.0 19.3 0.00 0.15 0.15 80 1014.8
20260905195943 27 45 9.7 22.5 0.00 0.15 0.15 79 1014.8
20260905195855 27 31 9.7 22.5 0.00 0.15 0.15 80 1014.8
20260905195620 27 91 6.4 22.5 0.00 0.15 0.15 81 1014.8
20260905195532 27 85 6.4 22.5 0.00 0.15 0.15 80 1014.7
20260905195423 27 68 9.7 22.5 0.00 0.15 0.15 81 1014.8
20260905195334 27 67 11.3 22.5 0.00 0.15 0.15 80 1014.7
20260905195226 27 65 16.1 22.5 0.00 0.15 0.15 80 1014.8
20260905195137 27 32 14.5 22.5 0.00 0.15 0.15 80 1014.8
20260905195029 27 20 9.7 20.9 0.00 0.15 0.15 79 1014.7
20260905194945 27 49 6.4 14.5 0.00 0.15 0.15 79 1014.7
20260905194837 27 55 6.4 14.5 0.00 0.15 0.15 79 1014.7
20260905194759 27 80 6.4 14.5 0.00 0.15 0.15 80 1014.7
20260905194640 27 35 6.4 19.3 0.00 0.15 0.15 79 1014.8
20260905194531 27 57 8.0 20.9 0.00 0.15 0.15 79 1014.7
20260905194423 27 78 6.4 20.9 0.00 0.15 0.15 79 1014.7
20260905194335 27 42 6.4 20.9 0.00 0.15 0.15 80 1014.7
20260905194228 27 42 8.0 20.9 0.00 0.15 0.15 80 1014.7
20260905194141 27 45 8.0 20.9 0.00 0.15 0.15 80 1014.7
20260905194054 27 61 9.7 20.9 0.00 0.15 0.15 80 1014.7
20260905193929 27 30 11.3 20.9 0.00 0.15 0.15 79 1014.7
20260905193821 27 68 12.9 20.9 0.00 0.15 0.15 80 1014.7
20260905193732 27 9 11.3 20.9 0.00 0.15 0.15 80 1014.7
20260905193625 27 59 6.4 14.5 0.00 0.15 0.15 80 1014.7
20260905193537 27 56 6.4 16.1 0.00 0.15 0.15 80 1014.7
20260905193429 27 65 6.4 17.7 0.00 0.15 0.15 81 1014.7
20260905193340 27 59 6.4 17.7 0.00 0.15 0.15 81 1014.8
20260905193230 27 30 6.4 17.7 0.00 0.15 0.15 80 1014.7
20260905193153 27 22 6.4 17.7 0.00 0.15 0.15 80 1014.7
20260905193028 27 17 9.7 17.7 0.00 0.15 0.15 79 1014.8
20260905192920 27 28 11.3 17.7 0.00 0.15 0.15 79 1014.7
20260905192832 27 5 11.3 17.7 0.00 0.15 0.15 79 1014.7
20260905192725 27 22 12.9 17.7 0.00 0.15 0.15 80 1014.8
20260905192637 27 9 12.9 17.7 0.00 0.15 0.15 80 1014.7
20260905192529 27 61 9.7 17.7 0.00 0.15 0.15 81 1014.8
20260905192421 27 38 4.8 16.1 0.00 0.15 0.15 81 1014.7
20260905192333 27 78 6.4 16.1 0.00 0.15 0.15 80 1014.8
20260905192230 27 63 4.8 16.1 0.00 0.15 0.15 81 1014.8
20260905192142 27 77 6.4 16.1 0.00 0.15 0.15 80 1014.8
20260905192055 27 52 8.0 17.7 0.00 0.15 0.15 79 1014.8
20260905191926 27 28 8.0 17.7 0.00 0.15 0.15 79 1014.9
20260905191838 27 21 9.7 17.7 0.00 0.15 0.15 78 1014.8
20260905191730 28 355 8.0 17.7 0.00 0.15 0.15 79 1014.9
20260905191653 28 16 9.7 17.7 0.00 0.15 0.15 79 1014.9
20260905191524 28 347 8.0 17.7 0.00 0.15 0.15 79 1014.8
20260905191437 28 46 8.0 17.7 0.00 0.15 0.15 79 1014.7
20260905191331 28 42 9.7 17.7 0.00 0.15 0.15 79 1014.7
20260905191221 28 5 9.7 17.7 0.00 0.15 0.15 79 1014.6
20260905191134 28 29 8.0 17.7 0.00 0.15 0.15 80 1014.6
20260905191026 28 120 4.8 16.1 0.00 0.15 0.15 81 1014.6
20260905190938 28 63 4.8 17.7 0.00 0.15 0.15 81 1014.6
20260905190850 27 66 3.2 17.7 0.00 0.15 0.15 81 1014.6
20260905190742 27 40 4.8 17.7 0.00 0.15 0.15 82 1014.7
20260905190653 27 54 6.4 17.7 0.00 0.15 0.15 81 1014.7
20260905190606 27 24 8.0 17.7 0.00 0.15 0.15 81 1014.7
20260905190456 27 25 9.7 17.7 0.00 0.15 0.15 81 1014.6
20260905190333 27 14 11.3 17.7 0.00 0.15 0.15 80 1014.7
20260905190223 27 30 12.9 17.7 0.00 0.15 0.15 81 1014.7
20260905190145 27 15 11.3 17.7 0.00 0.15 0.15 82 1014.6
20260905190037 27 15 8.0 16.1 0.00 0.15 0.15 82 1014.7
20260905185948 27 342 6.4 14.5 0.00 0.15 0.15 82 1014.8
20260905185839 27 351 6.4 14.5 0.00 0.15 0.15 82 1014.8
20260905185731 27 22 6.4 14.5 0.00 0.15 0.15 81 1014.7
20260905185623 27 18 4.8 14.5 0.00 0.15 0.15 81 1014.8
20260905185535 27 5 4.8 14.5 0.00 0.15 0.15 81 1014.8
20260905185430 27 24 4.8 14.5 0.00 0.15 0.15 81 1014.8
20260905185321 27 11 8.0 14.5 0.00 0.15 0.15 81 1014.8
20260905185234 27 46 8.0 14.5 0.00 0.15 0.15 81 1014.8
20260905185127 27 41 8.0 16.1 0.00 0.15 0.15 80 1014.8
20260905185037 27 28 8.0 16.1 0.00 0.15 0.15 80 1014.8
20260905184930 27 59 8.0 16.1 0.00 0.15 0.15 80 1014.9
20260905184821 27 25 8.0 16.1 0.00 0.15 0.15 81 1014.8
20260905184733 27 10 8.0 16.1 0.00 0.15 0.15 80 1014.9
20260905184655 27 355 8.0 16.1 0.00 0.15 0.15 80 1014.9
20260905184530 27 345 8.0 16.1 0.00 0.15 0.15 80 1014.9
20260905184422 27 34 9.7 16.1 0.00 0.15 0.15 80 1014.9
20260905184334 27 5 9.7 16.1 0.00 0.15 0.15 80 1014.9
20260905184226 27 17 9.7 16.1 0.00 0.15 0.15 80 1014.9
20260905184137 27 53 8.0 16.1 0.00 0.15 0.15 80 1014.9
20260905184030 27 47 4.8 12.9 0.00 0.15 0.15 81 1014.8
20260905183923 27 76 4.8 14.5 0.00 0.15 0.15 81 1014.8
20260905183835 27 98 4.8 14.5 0.00 0.15 0.15 82 1014.8
20260905183732 27 81 8.0 14.5 0.00 0.15 0.15 81 1014.8
20260905183623 27 82 8.0 14.5 0.00 0.15 0.15 80 1014.8
20260905183534 27 69 8.0 14.5 0.00 0.15 0.15 80 1014.8
20260905183427 27 96 8.0 14.5 0.00 0.15 0.15 80 1014.8
20260905183340 27 100 8.0 14.5 0.00 0.15 0.15 81 1014.8
20260905183230 27 94 6.4 14.5 0.00 0.15 0.15 80 1014.8
20260905183152 27 49 8.0 14.5 0.00 0.15 0.15 80 1014.8
20260905183023 27 28 8.0 14.5 0.00 0.15 0.15 80 1014.8
20260905182931 27 340 6.4 14.5 0.00 0.15 0.15 80 1014.9
20260905182828 27 57 6.4 14.5 0.00 0.15 0.15 81 1014.8
20260905182741 27 64 9.7 14.5 0.00 0.15 0.15 81 1014.8
20260905182631 27 342 8.0 14.5 0.00 0.15 0.15 81 1014.8
20260905182523 27 355 4.8 12.9 0.00 0.15 0.15 80 1014.8
20260905182435 27 335 3.2 9.7 0.00 0.15 0.15 79 1014.7
20260905182327 27 335 4.8 12.9 0.00 0.15 0.15 79 1014.8
20260905182220 27 344 4.8 12.9 0.00 0.15 0.15 80 1014.8
20260905182133 27 355 4.8 12.9 0.00 0.15 0.15 80 1014.8
20260905182029 27 347 6.4 12.9 0.00 0.15 0.15 79 1014.8
20260905181921 27 342 8.0 12.9 0.00 0.15 0.15 79 1014.9
20260905181834 27 360 6.4 12.9 0.00 0.15 0.15 79 1014.8
20260905181726 27 11 6.4 12.9 0.00 0.15 0.15 80 1014.8
20260905181647 27 59 6.4 12.9 0.00 0.15 0.15 80 1014.8
20260905181539 27 55 8.0 12.9 0.00 0.15 0.15 80 1014.8
20260905181431 27 341 6.4 12.9 0.00 0.15 0.15 80 1014.8
20260905181323 27 28 4.8 12.9 0.00 0.15 0.15 79 1014.8
20260905181235 27 17 6.4 12.9 0.00 0.15 0.15 79 1014.8
20260905181131 27 80 6.4 12.9 0.00 0.15 0.15 79 1014.8
20260905181024 27 57 6.4 12.9 0.00 0.15 0.15 79 1014.7
20260905180937 28 13 6.4 12.9 0.00 0.15 0.15 79 1014.8
20260905180828 27 48 6.4 12.9 0.00 0.15 0.15 79 1014.8
20260905180721 27 69 6.4 12.9 0.00 0.15 0.15 80 1014.8
20260905180632 27 90 6.4 12.9 0.00 0.15 0.15 79 1014.8
20260905180524 27 46 8.0 12.9 0.00 0.15 0.15 80 1014.9
20260905180420 27 22 3.2 11.3 0.00 0.15 0.15 80 1014.9
20260905180333 27 54 1.6 9.7 0.00 0.15 0.15 81 1014.9
20260905180243 27 54 3.2 12.9 0.00 0.20 0.15 80 1014.8
20260905180037 27 54 3.2 12.9 0.00 0.20 0.15 80 1014.9
20260905175928 27 9 3.2 12.9 0.00 0.20 0.15 79 1014.9
20260905175838 27 9 4.8 12.9 0.00 0.20 0.15 79 1014.9
20260905175730 27 348 6.4 12.9 0.00 0.20 0.15 79 1014.9
20260905175622 27 22 8.0 12.9 0.00 0.20 0.15 79 1014.9
20260905175519 27 5 8.0 12.9 0.00 0.20 0.15 78 1014.9
20260905175431 27 11 8.0 12.9 0.00 0.20 0.15 80 1014.8
20260905175322 27 355 8.0 12.9 0.00 0.20 0.15 79 1014.8
20260905175235 27 31 4.8 12.9 0.00 0.20 0.15 79 1014.8
20260905175126 27 360 1.6 8.0 0.00 0.20 0.15 79 1014.8
20260905175019 27 57 4.8 8.0 0.00 0.20 0.15 79 1014.8
20260905174931 27 57 4.8 8.0 0.00 0.20 0.15 79 1014.8
20260905174824 27 360 6.4 8.0 0.00 0.20 0.15 79 1014.8
20260905174735 27 46 4.8 8.0 0.00 0.20 0.15 79 1014.7
20260905174702 27 34 4.8 8.0 0.00 0.20 0.15 79 1014.8
20260905174531 27 5 3.2 8.0 0.00 0.20 0.15 79 1014.8
20260905174424 27 66 4.8 8.0 0.00 0.20 0.15 78 1014.8
20260905174337 27 46 6.4 8.0 0.00 0.20 0.15 78 1014.8
20260905174249 27 88 6.4 8.0 0.00 0.20 0.15 78 1014.8
20260905174138 27 97 4.8 9.7 0.00 0.20 0.15 80 1014.8
20260905174030 27 84 3.2 6.4 0.00 0.20 0.15 81 1014.8
20260905173942 27 65 1.6 6.4 0.00 0.20 0.15 81 1014.9
20260905173854 27 65 3.2 14.5 0.00 0.20 0.15 80 1014.9
20260905173725 27 65 4.8 14.5 0.00 0.20 0.15 79 1015.0
20260905173621 27 36 3.2 14.5 0.00 0.20 0.15 80 1014.9
20260905173533 27 28 3.2 14.5 0.00 0.20 0.15 80 1014.9
20260905173446 27 53 4.8 14.5 0.00 0.20 0.15 80 1014.9
20260905173359 27 56 3.2 14.5 0.00 0.20 0.15 79 1015.0
20260905173228 27 11 3.2 14.5 0.00 0.20 0.15 79 1015.0
20260905173149 27 11 4.8 14.5 0.00 0.20 0.15 79 1015.0
20260905173041 27 40 6.4 14.5 0.00 0.20 0.15 79 1015.0
20260905172954 27 33 6.4 14.5 0.00 0.20 0.15 79 1015.0
20260905172844 27 61 6.4 12.9 0.00 0.20 0.15 79 1014.9
20260905172756 27 70 4.8 11.3 0.00 0.20 0.15 79 1014.9
20260905172631 27 306 4.8 9.7 0.00 0.20 0.15 79 1014.9
20260905172523 27 346 3.2 9.7 0.00 0.20 0.15 79 1014.9
20260905172435 27 360 4.8 9.7 0.00 0.20 0.15 79 1015.0
20260905172347 27 36 3.2 9.7 0.00 0.20 0.15 80 1015.0
20260905172300 27 306 3.2 9.7 0.00 0.20 0.15 80 1015.0
20260905172213 27 92 4.8 9.7 0.00 0.20 0.15 79 1015.0
20260905172101 27 64 4.8 9.7 0.00 0.20 0.15 80 1015.1
20260905171952 27 84 3.2 9.7 0.00 0.20 0.15 80 1015.1
20260905171842 27 54 1.6 11.3 0.00 0.20 0.15 79 1015.0
20260905171732 27 55 1.6 11.3 0.00 0.20 0.15 80 1015.1
20260905171655 27 55 3.2 11.3 0.00 0.20 0.15 80 1015.1
20260905171531 27 55 6.4 11.3 0.00 0.20 0.15 80 1015.1
20260905171423 27 41 6.4 11.3 0.00 0.20 0.15 80 1015.0
20260905171336 27 35 6.4 11.3 0.00 0.20 0.15 81 1015.0
20260905171227 27 83 3.2 11.3 0.00 0.20 0.15 84 1015.0
20260905171119 27 105 3.2 11.3 0.00 0.20 0.15 83 1015.1
20260905171031 27 105 3.2 11.3 0.00 0.20 0.15 81 1015.0
20260905170923 27 67 3.2 9.7 0.00 0.20 0.15 82 1015.0
20260905170834 27 67 3.2 9.7 0.00 0.20 0.15 82 1015.0
20260905170747 27 57 3.2 9.7 0.00 0.20 0.15 83 1015.0
20260905170703 27 119 6.4 9.7 0.00 0.20 0.15 81 1015.1
20260905170554 27 105 6.4 11.3 0.00 0.20 0.15 82 1015.1
20260905170441 27 105 4.8 8.0 0.00 0.20 0.15 82 1015.1
20260905170333 27 96 3.2 8.0 0.00 0.20 0.15 83 1015.2
20260905170222 27 67 3.2 8.0 0.00 0.69 0.15 83 1015.2
20260905170144 27 89 3.2 8.0 0.00 0.69 0.15 82 1015.2
20260905170035 27 69 4.8 8.0 0.00 0.69 0.15 83 1015.3
20260905165948 27 60 4.8 8.0 0.00 0.69 0.15 83 1015.2
20260905165900 27 57 3.2 8.0 0.00 0.69 0.15 82 1015.2
20260905165751 27 344 1.6 8.0 0.00 0.69 0.15 82 1015.2
20260905165642 27 292 3.2 8.0 0.00 0.69 0.15 82 1015.2
20260905165533 26 292 3.2 9.7 0.00 0.69 0.15 82 1015.3
20260905165429 26 292 3.2 9.7 0.00 0.69 0.15 81 1015.2
20260905165321 26 42 1.6 9.7 0.00 0.69 0.15 82 1015.3
20260905165232 26 42 3.2 9.7 0.00 0.69 0.15 82 1015.3
20260905165124 26 42 4.8 9.7 0.00 0.69 0.15 82 1015.3
20260905165036 26 42 6.4 9.7 0.00 0.69 0.15 83 1015.2
20260905164927 26 48 6.4 9.7 0.00 0.69 0.15 83 1015.3
20260905164819 26 37 4.8 9.7 0.00 0.69 0.15 84 1015.2
20260905164731 26 61 3.2 9.7 0.00 0.69 0.15 85 1015.3
20260905164657 26 35 3.2 8.0 0.00 0.69 0.15 84 1015.3
20260905164528 26 302 3.2 8.0 0.00 0.69 0.15 84 1015.3
20260905164441 26 302 3.2 8.0 0.00 0.69 0.15 84 1015.2
20260905164353 26 302 3.2 8.0 0.00 0.69 0.15 84 1015.2
20260905164244 26 337 4.8 8.0 0.00 0.69 0.15 85 1015.2
20260905164136 26 24 4.8 8.0 0.00 0.69 0.15 85 1015.2
20260905164029 26 5 4.8 8.0 0.00 0.69 0.15 84 1015.2
20260905163941 26 340 6.4 8.0 0.00 0.69 0.15 85 1015.2
20260905163832 26 17 3.2 8.0 0.00 0.69 0.15 85 1015.3
20260905163744 26 295 3.2 9.7 0.00 0.69 0.15 84 1015.3
20260905163634 26 295 4.8 9.7 0.00 0.69 0.15 84 1015.2
20260905163530 26 304 4.8 9.7 0.00 0.69 0.15 84 1015.3
20260905163442 26 286 4.8 9.7 0.00 0.69 0.15 84 1015.2
20260905163354 26 324 4.8 9.7 0.00 0.69 0.15 84 1015.2
20260905163306 26 302 4.8 9.7 0.00 0.69 0.15 84 1015.2
20260905163206 26 10 6.4 9.7 0.00 0.69 0.15 84 1015.2
20260905163057 26 333 8.0 9.7 0.00 0.69 0.15 84 1015.2
20260905162948 26 337 8.0 9.7 0.00 0.69 0.15 84 1015.3
20260905162839 26 340 6.4 9.7 0.00 0.69 0.15 85 1015.3
20260905162730 26 50 4.8 9.7 0.00 0.69 0.15 85 1015.3
20260905162622 26 351 4.8 9.7 0.00 0.69 0.15 85 1015.3
20260905162538 26 9 3.2 9.7 0.00 0.69 0.15 85 1015.2
20260905162431 26 117 3.2 9.7 0.00 0.69 0.15 85 1015.3
20260905162342 26 117 1.6 9.7 0.00 0.69 0.15 85 1015.2
20260905162254 26 49 1.6 9.7 0.00 0.69 0.15 85 1015.3
20260905162146 26 55 4.8 9.7 0.00 0.69 0.15 84 1015.3
20260905162038 26 62 6.4 9.7 0.00 0.69 0.15 84 1015.2
20260905161931 26 68 4.8 9.7 0.00 0.69 0.15 83 1015.3
20260905161843 26 92 3.2 6.4 0.00 0.69 0.15 83 1015.3
20260905161754 26 61 3.2 6.4 0.00 0.69 0.15 84 1015.3
20260905161656 26 61 3.2 6.4 0.00 0.69 0.15 84 1015.3
20260905161547 26 360 3.2 6.4 0.00 0.69 0.15 84 1015.3
20260905161421 26 360 3.2 8.0 0.00 0.69 0.15 83 1015.3
20260905161334 26 274 3.2 8.0 0.00 0.69 0.15 83 1015.2
20260905161226 26 274 3.2 8.0 0.00 0.69 0.15 83 1015.2
20260905161138 26 344 3.2 8.0 0.00 0.69 0.15 83 1015.1
20260905161031 26 305 3.2 8.0 0.00 0.69 0.15 84 1015.1
20260905160922 26 325 3.2 8.0 0.00 0.69 0.15 84 1015.1
20260905160833 26 313 3.2 8.0 0.00 0.69 0.15 84 1015.1
20260905160725 26 9 4.8 8.0 0.00 0.69 0.15 84 1015.2
20260905160621 26 5 4.8 8.0 0.00 0.69 0.15 84 1015.1
20260905160532 26 47 4.8 8.0 0.00 0.69 0.15 85 1015.1
20260905160424 26 49 3.2 8.0 0.00 0.69 0.15 85 1015.1
20260905160337 26 67 3.2 8.0 0.00 0.69 0.15 86 1015.1
20260905160227 26 67 4.8 8.0 0.00 0.69 0.15 86 1015.1
20260905160148 26 67 4.8 8.0 0.00 0.69 0.15 86 1015.1
20260905160021 26 42 3.2 8.0 0.00 0.69 0.15 86 1015.2
20260905155933 26 30 1.6 8.0 0.00 0.69 0.15 86 1015.2
20260905155827 26 53 4.8 8.0 0.00 0.69 0.15 86 1015.2
20260905155720 26 53 4.8 8.0 0.00 0.69 0.15 87 1015.3
20260905155632 26 5 1.6 8.0 0.00 0.69 0.15 87 1015.3
20260905155543 26 73 1.6 9.7 0.00 0.69 0.15 87 1015.3
20260905155455 26 80 1.6 9.7 0.00 0.69 0.15 87 1015.3
20260905155346 26 69 1.6 9.7 0.00 0.69 0.15 88 1015.3
20260905155257 25 53 1.6 9.7 0.00 0.69 0.15 87 1015.3
20260905155147 25 53 3.2 9.7 0.00 0.69 0.15 88 1015.3
20260905155019 25 53 6.4 9.7 0.00 0.69 0.15 88 1015.3
20260905154931 25 34 6.4 9.7 0.00 0.69 0.15 88 1015.2
20260905154827 25 34 6.4 9.7 0.00 0.69 0.15 88 1015.3
20260905154738 25 348 4.8 9.7 0.00 0.69 0.15 88 1015.2
20260905154659 25 24 4.8 9.7 0.00 0.69 0.15 88 1015.2
20260905154531 25 12 4.8 9.7 0.00 0.69 0.15 88 1015.1
20260905154444 25 355 3.2 9.7 0.00 0.69 0.15 88 1015.2
20260905154356 25 17 4.8 9.7 0.00 0.69 0.15 88 1015.2
20260905154247 25 17 4.8 9.7 0.00 0.69 0.15 89 1015.2
20260905154137 25 75 4.8 9.7 0.00 0.69 0.15 89 1015.2
20260905154028 25 68 4.8 8.0 0.00 0.69 0.15 90 1015.2
20260905153940 25 83 4.8 6.4 0.00 0.69 0.15 89 1015.2
20260905153853 25 28 3.2 6.4 0.00 0.69 0.15 89 1015.2
20260905153809 25 118 1.6 4.8 0.00 0.69 0.15 89 1015.3
20260905153700 25 118 0.0 6.4 0.00 0.69 0.15 89 1015.2
20260905153531 25 118 0.0 9.7 0.00 0.69 0.15 89 1015.3
20260905153424 25 118 1.6 9.7 0.00 0.69 0.15 89 1015.3
20260905153336 25 118 3.2 12.9 0.00 0.69 0.15 89 1015.3
20260905153246 25 118 3.2 12.9 0.00 0.69 0.15 89 1015.3
20260905153147 25 118 1.6 12.9 0.00 0.69 0.15 89 1015.2
20260905153039 25 118 0.0 12.9 0.00 0.69 0.15 89 1015.2
20260905152952 25 118 3.2 12.9 0.00 0.69 0.15 89 1015.2
20260905152822 25 118 6.4 12.9 0.00 0.69 0.15 90 1015.2
20260905152719 25 98 8.0 12.9 0.00 0.69 0.15 90 1015.1
20260905152630 25 96 8.0 12.9 0.00 0.69 0.15 90 1015.1
20260905152522 25 116 3.2 12.9 0.00 0.69 0.15 91 1015.1
20260905152434 25 5 1.6 12.9 0.00 0.69 0.15 91 1015.1
20260905152326 25 67 1.6 12.9 0.00 0.69 0.15 91 1015.1
20260905152238 25 67 4.8 12.9 0.00 0.69 0.15 91 1015.1
20260905152150 25 73 4.8 12.9 0.00 0.69 0.15 91 1015.2
20260905152022 25 124 3.2 9.7 0.00 0.69 0.15 92 1015.1
20260905151919 25 146 3.2 9.7 0.00 0.69 0.15 91 1015.1
20260905151831 25 146 4.8 9.7 0.00 0.69 0.15 91 1015.1
20260905151742 25 146 4.8 9.7 0.00 0.69 0.15 92 1015.0
20260905151704 25 146 4.8 9.7 0.00 0.69 0.15 91 1015.0
20260905151556 25 92 3.2 9.7 0.00 0.69 0.15 91 1015.0
20260905151447 25 92 4.8 9.7 0.00 0.69 0.15 92 1014.9
20260905151359 25 92 6.4 9.7 0.00 0.69 0.15 91 1015.0
20260905151230 25 89 6.4 9.7 0.00 0.69 0.15 91 1014.9
20260905151123 25 96 6.4 9.7 0.00 0.69 0.15 92 1015.0
20260905151036 25 87 4.8 9.7 0.00 0.69 0.15 92 1015.0
20260905150932 25 70 3.2 6.4 0.00 0.69 0.15 93 1015.0
20260905150845 24 87 3.2 6.4 0.00 0.69 0.15 93 1015.1
20260905150757 24 87 4.8 6.4 0.00 0.69 0.15 93 1015.1
20260905150710 24 97 4.8 6.4 0.00 0.69 0.15 93 1015.0
20260905150600 24 106 3.2 6.4 0.00 0.69 0.15 94 1015.0
20260905150432 24 121 1.6 6.4 0.00 0.69 0.15 94 1015.0
20260905150323 24 121 1.6 6.4 0.00 0.69 0.15 93 1015.0
20260905150234 24 121 3.2 12.9 0.00 0.69 0.15 93 1015.0
20260905150157 23 121 3.2 12.9 0.00 0.69 0.15 93 1015.0
20260905150028 23 121 1.6 12.9 0.00 0.69 0.15 93 1015.0
20260905145925 23 116 0.0 12.9 0.00 0.69 0.15 93 1015.0
20260905145835 23 128 0.0 12.9 0.00 0.69 0.15 93 1015.0
20260905145747 23 113 0.0 12.9 0.00 0.69 0.15 93 1015.0
20260905145637 23 113 0.0 12.9 0.00 0.69 0.15 92 1015.0
20260905145529 23 153 1.6 12.9 0.00 0.69 0.15 92 1015.0
20260905145441 23 153 4.8 12.9 0.00 0.69 0.15 93 1015.0
20260905145332 23 152 6.4 12.9 0.00 0.69 0.15 93 1015.0
20260905145225 23 109 6.4 6.4 0.00 0.69 0.15 93 1015.1
20260905145137 23 109 4.8 6.4 0.00 0.69 0.15 93 1015.0
20260905145033 23 109 3.2 6.4 0.00 0.69 0.15 93 1015.0
20260905144925 23 106 1.6 4.8 0.00 0.69 0.15 94 1015.0
20260905144838 23 139 3.2 8.0 0.00 0.69 0.15 94 1015.0
20260905144730 23 139 3.2 8.0 0.00 0.69 0.15 94 1014.9
20260905144652 23 139 3.2 8.0 0.00 0.69 0.15 94 1014.9
20260905144523 23 139 1.6 8.0 0.00 0.69 0.15 94 1014.9
20260905144435 23 139 1.6 8.0 0.00 0.69 0.15 94 1014.9
20260905144326 23 139 1.6 8.0 0.00 0.69 0.15 94 1014.9
20260905144238 23 139 1.6 8.0 0.00 0.69 0.15 94 1014.9
20260905144153 23 139 4.8 8.0 0.00 0.69 0.15 94 1014.9
20260905144044 23 139 6.4 9.7 0.00 0.69 0.15 94 1014.9
20260905143936 23 119 4.8 9.7 0.00 0.69 0.15 94 1015.0
20260905143829 23 123 4.8 8.0 0.00 0.69 0.15 94 1015.0
20260905143722 23 106 3.2 6.4 0.00 0.69 0.15 94 1015.0
20260905143634 23 106 3.2 6.4 0.00 0.69 0.15 94 1015.0
20260905143526 23 106 4.8 6.4 0.00 0.69 0.15 94 1015.0
20260905143438 23 106 4.8 6.4 0.00 0.69 0.15 94 1015.1
20260905143330 23 106 3.2 6.4 0.00 0.69 0.15 94 1015.1
20260905143223 23 106 3.2 6.4 0.00 0.69 0.15 94 1015.1
20260905143145 23 106 3.2 11.3 0.00 0.69 0.15 94 1015.1
20260905143037 23 106 4.8 11.3 0.00 0.69 0.15 94 1015.0
20260905142946 23 106 3.2 11.3 0.00 0.69 0.15 95 1014.9
20260905142858 23 146 3.2 11.3 0.00 0.69 0.15 95 1015.0
20260905142729 23 146 3.2 11.3 0.00 0.69 0.15 95 1015.0
20260905142621 23 146 4.8 11.3 0.00 0.69 0.15 95 1015.0
20260905142534 23 146 4.8 11.3 0.00 0.69 0.15 95 1015.0
20260905142425 23 138 6.4 11.3 0.00 0.69 0.15 95 1015.0
20260905142336 23 138 6.4 11.3 0.00 0.69 0.15 95 1015.1
20260905142248 23 138 4.8 11.3 0.00 0.69 0.15 95 1015.1
20260905142143 23 125 6.4 11.3 0.00 0.69 0.15 95 1015.1
20260905142034 23 125 6.4 11.3 0.00 0.69 0.15 95 1015.1
20260905141927 23 125 6.4 11.3 0.00 0.69 0.15 95 1015.1
20260905141839 23 119 6.4 11.3 0.00 0.69 0.15 95 1015.1
20260905141740 23 100 4.8 11.3 0.00 0.69 0.15 95 1015.1
20260905141642 23 100 6.4 11.3 0.00 0.69 0.15 95 1015.0
20260905141534 23 100 6.4 11.3 0.00 0.69 0.15 96 1015.0
20260905141426 23 130 6.4 11.3 0.00 0.69 0.15 96 1015.0
20260905141339 23 109 6.4 11.3 0.00 0.69 0.15 96 1015.1
20260905141235 23 133 6.4 11.3 0.00 0.69 0.15 95 1015.0
20260905141127 23 124 1.6 9.7 0.00 0.69 0.15 97 1015.1
20260905141020 23 83 0.0 4.8 0.00 0.69 0.15 97 1015.0
20260905140932 23 83 0.0 4.8 0.00 0.69 0.15 97 1015.1
20260905140824 23 83 0.0 4.8 0.00 0.69 0.15 97 1015.1
20260905140737 23 83 0.0 4.8 0.00 0.69 0.15 97 1015.1
20260905140648 23 83 0.0 4.8 0.00 0.69 0.15 97 1015.1
20260905140520 22 83 0.0 6.4 0.00 0.69 0.15 96 1015.1
20260905140431 22 83 0.0 6.4 0.00 0.69 0.15 96 1015.1
20260905140348 22 83 1.6 6.4 0.00 0.69 0.15 96 1015.0
20260905140237 22 83 3.2 6.4 0.00 0.69 0.15 96 1015.0
20260905140159 22 83 3.2 6.4 0.00 0.69 0.15 96 1015.0
20260905140031 22 83 4.8 6.4 0.00 0.69 0.15 96 1015.1
20260905135923 22 83 3.2 6.4 0.00 0.69 0.15 96 1015.1
20260905135836 22 83 3.2 6.4 0.00 0.69 0.15 96 1015.1
20260905135729 22 83 3.2 6.4 0.00 0.69 0.15 96 1015.0
20260905135620 22 83 3.2 9.7 0.00 0.69 0.15 97 1015.1
20260905135531 22 53 1.6 11.3 0.00 0.69 0.15 97 1015.0
20260905135447 22 74 1.6 11.3 0.00 0.69 0.15 97 1015.0
20260905135359 22 74 3.2 11.3 0.00 0.69 0.15 97 1015.0
20260905135251 22 68 4.8 11.3 0.00 0.69 0.15 96 1015.0
20260905135122 22 104 4.8 11.3 0.00 0.69 0.15 96 1015.0
20260905135034 22 92 4.8 11.3 0.00 0.69 0.15 96 1015.0
20260905134946 22 67 6.4 11.3 0.00 0.69 0.15 96 1015.0
20260905134838 22 97 6.4 11.3 0.00 0.69 0.15 96 1014.9
20260905134750 22 92 6.4 11.3 0.00 0.69 0.15 96 1014.9
20260905134712 23 101 4.8 9.7 0.00 0.69 0.15 97 1014.9
20260905134544 23 65 4.8 8.0 0.00 0.69 0.15 97 1014.9
20260905134435 23 89 4.8 8.0 0.00 0.69 0.15 97 1014.9
20260905134347 23 87 4.8 8.0 0.00 0.69 0.15 97 1014.9
20260905134242 23 80 4.8 8.0 0.00 0.69 0.15 97 1014.9
20260905134133 23 76 4.8 8.0 0.00 0.69 0.15 97 1015.0
20260905134045 23 71 4.8 8.0 0.00 0.69 0.15 97 1014.9
20260905133957 23 86 6.4 8.0 0.00 0.69 0.15 97 1014.9
20260905133848 23 83 4.8 8.0 0.00 0.69 0.15 97 1014.9
20260905133800 23 67 4.8 8.0 0.00 0.69 0.15 97 1015.0
20260905133632 23 67 4.8 9.7 0.00 0.69 0.15 97 1015.0
20260905133545 23 84 4.8 9.7 0.00 0.69 0.15 97 1014.9
20260905133458 23 71 4.8 9.7 0.00 0.69 0.15 97 1014.9
20260905133411 22 69 4.8 8.0 0.00 0.69 0.15 97 1014.9
20260905133301 22 82 4.8 6.4 0.00 0.69 0.15 97 1014.9
20260905133140 23 105 4.8 6.4 0.00 0.69 0.15 97 1015.0
20260905133035 22 61 3.2 6.4 0.00 0.69 0.15 97 1015.0
20260905132927 22 65 3.2 6.4 0.00 0.69 0.15 97 1015.0
20260905132838 22 97 3.2 6.4 0.00 0.69 0.15 97 1014.9
20260905132730 22 97 4.8 6.4 0.00 0.69 0.15 97 1015.0
20260905132623 22 91 4.8 6.4 0.00 0.69 0.15 97 1014.9
20260905132535 22 74 3.2 6.4 0.00 0.69 0.15 98 1015.0
20260905132447 22 60 3.2 6.4 0.00 0.69 0.15 98 1014.9
20260905132338 22 93 3.2 8.0 0.00 0.69 0.15 98 1014.9
20260905132230 22 131 3.2 8.0 0.00 0.69 0.15 98 1015.0
20260905132126 22 131 3.2 8.0 0.00 0.69 0.15 98 1014.9
20260905132038 22 131 3.2 8.0 0.00 0.69 0.15 98 1014.9
20260905131930 22 131 4.8 8.0 0.00 0.69 0.15 98 1014.8
20260905131821 22 131 4.8 8.0 0.00 0.69 0.15 98 1014.8
20260905131734 22 131 4.8 8.0 0.00 0.69 0.15 98 1014.7
20260905131657 22 131 4.8 8.0 0.00 0.69 0.15 98 1014.7
20260905131528 22 131 4.8 8.0 0.00 0.69 0.15 98 1014.7
20260905131439 22 131 3.2 8.0 0.00 0.69 0.15 98 1014.7
20260905131332 22 131 3.2 8.0 0.00 0.69 0.15 98 1014.7
20260905131229 22 131 4.8 8.0 0.00 0.69 0.15 98 1014.8
20260905131141 22 131 3.2 8.0 0.00 0.69 0.15 99 1014.8
20260905131033 22 108 3.2 6.4 0.00 0.69 0.15 99 1014.8
20260905130924 22 108 3.2 6.4 0.00 0.69 0.15 99 1014.8
20260905130835 22 108 3.2 6.4 0.00 0.69 0.15 98 1014.8
20260905130727 22 91 4.8 6.4 0.00 0.69 0.15 98 1014.8
20260905130619 22 113 4.8 6.4 0.00 0.69 0.15 98 1014.7
20260905130532 22 113 4.8 6.4 0.00 0.69 0.15 98 1014.7
20260905130426 22 99 4.8 4.8 0.00 0.69 0.15 99 1014.7
20260905130340 22 119 3.2 4.8 0.00 0.69 0.15 99 1014.7
20260905130230 22 122 3.2 6.4 0.00 0.69 0.15 99 1014.7
20260905130151 22 122 3.2 6.4 0.00 0.69 0.15 99 1014.7
20260905130022 22 122 1.6 6.4 0.00 0.69 0.15 99 1014.6
20260905125934 22 122 0.0 6.4 0.00 0.69 0.15 98 1014.8
20260905125826 22 122 0.0 6.4 0.00 0.69 0.15 98 1014.7
20260905125739 22 122 0.0 6.4 0.00 0.69 0.15 98 1014.8
20260905125631 22 122 0.0 6.4 0.00 0.69 0.15 98 1014.7
20260905125527 22 122 3.2 6.4 0.00 0.69 0.15 98 1014.8
20260905125419 22 122 3.2 6.4 0.00 0.69 0.15 98 1014.7
20260905125332 22 100 3.2 6.4 0.00 0.69 0.15 98 1014.7
20260905125224 22 100 1.6 6.4 0.00 0.69 0.15 98 1014.8
20260905125138 22 100 0.0 6.4 0.00 0.69 0.15 98 1014.8
20260905125030 22 68 0.0 6.4 0.00 0.69 0.15 98 1014.8
20260905124921 22 57 0.0 6.4 0.00 0.69 0.15 98 1014.7
20260905124834 22 70 0.0 6.4 0.00 0.69 0.15 98 1014.7
20260905124727 22 48 0.0 8.0 0.00 0.69 0.15 98 1014.8
20260905124649 22 48 1.6 8.0 0.00 0.69 0.15 98 1014.8
20260905124520 22 49 3.2 8.0 0.00 0.69 0.15 98 1014.8
20260905124433 22 57 3.2 8.0 0.00 0.69 0.15 98 1014.9
20260905124346 22 51 1.6 8.0 0.00 0.69 0.15 98 1014.9
20260905124257 22 55 3.2 8.0 0.00 0.69 0.15 98 1014.8
20260905124128 22 57 4.8 8.0 0.00 0.69 0.15 98 1014.9
20260905124039 22 81 3.2 8.0 0.00 0.69 0.15 98 1014.9
20260905123951 22 71 1.6 8.0 0.00 0.69 0.15 98 1014.9
20260905123843 22 71 3.2 8.0 0.00 0.69 0.15 98 1014.9
20260905123756 22 71 4.8 8.0 0.00 0.69 0.15 98 1014.9
20260905123651 22 61 3.2 6.4 0.00 0.69 0.15 98 1014.9
20260905123603 22 88 3.2 11.3 0.00 0.69 0.15 98 1014.8
20260905123516 22 62 3.2 11.3 0.00 0.69 0.15 98 1014.9
20260905123428 22 76 3.2 11.3 0.00 0.69 0.15 98 1014.8
20260905123319 22 92 4.8 11.3 0.00 0.69 0.15 98 1014.8
20260905123158 22 96 3.2 11.3 0.00 0.69 0.15 98 1014.7
20260905123030 22 102 3.2 11.3 0.00 0.69 0.15 98 1014.7
20260905122923 22 105 6.4 11.3 0.00 0.69 0.15 98 1014.7
20260905122836 22 97 6.4 11.3 0.00 0.69 0.15 98 1014.8
20260905122729 22 101 4.8 9.7 0.00 0.69 0.15 98 1014.7
20260905122624 22 98 6.4 9.7 0.00 0.69 0.15 98 1014.7
20260905122536 22 91 4.8 9.7 0.00 0.69 0.15 98 1014.6
20260905122429 22 94 4.8 9.7 0.00 0.69 0.15 98 1014.6
20260905122320 22 114 6.4 9.7 0.00 0.69 0.15 98 1014.6
20260905122232 22 100 6.4 9.7 0.00 0.69 0.15 98 1014.5
20260905122125 22 95 4.8 9.7 0.00 0.69 0.15 98 1014.5
20260905122036 22 123 4.8 6.4 0.00 0.69 0.15 98 1014.5
20260905121929 22 122 3.2 6.4 0.00 0.69 0.15 98 1014.6
20260905121845 22 116 3.2 6.4 0.00 0.69 0.15 98 1014.4
20260905121757 22 96 4.8 6.4 0.00 0.69 0.15 98 1014.4
20260905121659 22 96 3.2 6.4 0.00 0.69 0.15 98 1014.4
20260905121530 22 88 1.6 6.4 0.00 0.69 0.15 98 1014.4
20260905121422 22 88 1.6 6.4 0.00 0.69 0.15 98 1014.3
20260905121335 22 88 3.2 6.4 0.00 0.69 0.15 98 1014.3
20260905121227 22 101 3.2 6.4 0.00 0.69 0.15 98 1014.3
20260905121139 22 80 4.8 6.4 0.00 0.69 0.15 98 1014.4
20260905121031 22 109 4.8 6.4 0.00 0.69 0.15 98 1014.4
20260905120928 22 90 4.8 6.4 0.00 0.69 0.15 98 1014.2
20260905120840 22 119 4.8 6.4 0.00 0.69 0.15 98 1014.3
20260905120753 22 88 1.6 6.4 0.00 0.69 0.15 98 1014.3
20260905120624 22 87 0.0 0.0 0.00 0.69 0.15 98 1014.3
20260905120535 22 87 0.0 0.0 0.00 0.69 0.15 98 1014.3
20260905120448 22 87 0.0 0.0 0.00 0.69 0.15 98 1014.3
20260905120400 22 87 0.0 0.0 0.00 0.69 0.15 98 1014.3
20260905120231 22 87 0.0 0.0 0.00 0.69 0.15 98 1014.3
20260905120153 22 87 0.0 0.0 0.00 0.69 0.15 98 1014.3
20260905120044 22 87 0.0 0.0 0.00 0.69 0.15 98 1014.2
20260905115938 22 87 0.0 0.0 0.00 0.69 0.15 98 1014.2
20260905115849 22 87 0.0 0.0 0.00 0.69 0.15 98 1014.2
20260905115741 22 87 0.0 0.0 0.00 0.69 0.15 98 1014.2
20260905115653 22 61 0.0 0.0 0.00 0.69 0.15 98 1014.2
20260905115606 22 86 0.0 1.6 0.00 0.69 0.15 98 1014.1
20260905115456 22 72 0.0 4.8 0.00 0.69 0.15 98 1014.1
20260905115328 22 72 0.0 4.8 0.00 0.69 0.15 98 1014.1
20260905115220 22 72 0.0 4.8 0.00 0.69 0.15 98 1014.0
20260905115133 22 72 0.0 4.8 0.00 0.69 0.15 98 1014.0
20260905115045 22 72 0.0 6.4 0.00 0.69 0.15 98 1014.0
20260905114935 22 95 0.0 6.4 0.00 0.69 0.15 98 1013.9
20260905114830 22 95 1.6 6.4 0.00 0.69 0.15 98 1013.9
20260905114741 22 63 3.2 6.4 0.00 0.69 0.15 98 1013.9
20260905114641 22 63 1.6 6.4 0.00 0.69 0.15 98 1013.8
20260905114533 22 63 0.0 6.4 0.00 0.69 0.15 98 1013.9
20260905114425 22 86 1.6 6.4 0.00 0.69 0.15 98 1013.8
20260905114337 22 86 3.2 6.4 0.00 0.69 0.15 98 1013.9
20260905114229 22 84 4.8 6.4 0.00 0.69 0.15 98 1013.9
20260905114120 22 89 1.6 6.4 0.00 0.69 0.15 98 1013.8
20260905114032 22 90 0.0 6.4 0.00 0.69 0.15 98 1013.9
20260905113928 22 75 0.0 0.0 0.00 0.69 0.15 98 1013.9
20260905113820 22 75 0.0 0.0 0.00 0.69 0.15 98 1013.9
20260905113732 22 76 0.0 0.0 0.00 0.69 0.15 98 1013.9
20260905113624 22 76 0.0 0.0 0.00 0.69 0.15 98 1013.9
20260905113536 22 76 0.0 0.0 0.00 0.69 0.15 98 1013.9
20260905113428 22 76 0.0 0.0 0.00 0.69 0.15 98 1013.9
20260905113341 22 76 0.0 0.0 0.00 0.69 0.15 98 1013.9
20260905113230 22 63 0.0 0.0 0.00 0.69 0.15 98 1013.9
20260905113153 22 31 0.0 0.0 0.00 0.69 0.15 98 1013.9
20260905113029 22 31 0.0 0.0 0.00 0.69 0.15 98 1013.8
20260905112921 22 31 0.0 0.0 0.00 0.69 0.15 98 1013.8
20260905112832 22 31 0.0 0.0 0.00 0.69 0.15 98 1013.8
20260905112725 22 31 0.0 0.0 0.00 0.69 0.15 97 1013.7
20260905112638 22 31 0.0 0.0 0.00 0.69 0.15 97 1013.7
20260905112530 22 31 0.0 0.0 0.00 0.69 0.15 97 1013.7
20260905112443 22 31 0.0 0.0 0.00 0.69 0.15 97 1013.8
20260905112355 22 31 0.0 0.0 0.00 0.69 0.15 97 1013.8
20260905112231 22 31 0.0 0.0 0.00 0.69 0.15 97 1013.8
20260905112143 22 31 0.0 0.0 0.00 0.69 0.15 98 1013.8
20260905112056 22 31 0.0 0.0 0.00 0.69 0.15 98 1013.7
20260905111949 22 31 0.0 0.0 0.00 0.69 0.15 98 1013.7
20260905111901 22 31 0.0 0.0 0.00 0.69 0.15 98 1013.7
20260905111813 22 31 0.0 0.0 0.00 0.69 0.15 98 1013.7
20260905111713 22 31 0.0 0.0 0.00 0.69 0.15 98 1013.6
20260905111524 22 31 0.0 0.0 0.00 0.69 0.15 98 1013.5
20260905111437 22 31 0.0 0.0 0.00 0.69 0.15 98 1013.5
20260905111348 22 31 0.0 0.0 0.00 0.69 0.15 98 1013.4
20260905111300 22 31 0.0 0.0 0.00 0.69 0.15 98 1013.5
20260905111135 22 31 0.0 0.0 0.00 0.69 0.15 98 1013.5
20260905111026 22 31 0.0 0.0 0.00 0.69 0.15 98 1013.4
20260905110938 22 31 0.0 0.0 0.00 0.69 0.15 98 1013.5
20260905110829 22 31 0.0 6.4 0.00 0.69 0.15 98 1013.5
20260905110722 22 31 0.0 6.4 0.00 0.69 0.15 98 1013.5
20260905110634 22 31 0.0 8.0 0.00 0.69 0.15 98 1013.5
20260905110547 22 31 0.0 8.0 0.00 0.69 0.15 98 1013.5
20260905110438 22 31 0.0 8.0 0.00 0.69 0.15 98 1013.5
20260905110351 22 31 0.0 8.0 0.00 0.69 0.15 98 1013.4